GFSWCAN_prec_precacc_225.txt.gz
Total_Precipitation_Accumulation
3.52 3.07 3.09 2.66 2.47 2.56 1.98 1.87 1.69 1.51 1.43 1.48 1.53 1.37 1.24 1.52 2.30 3.10 3.14 2.47 5.03 4.58 2.56 1.45 0.99 0.82 0.64 1.00 1.81 1.92 1.88 2.13 2.42 2.67 2.92 2.36 1.55 0.97 0.63 0.63 0.95 0.88 1.15 1.35 1.45 2.05 1.51 0.23 0.33 0.94 1.62 0.95 0.82 0.72
3.73 3.17 3.17 2.85 2.50 2.46 1.99 1.96 1.84 1.57 1.36 1.30 1.44 1.37 1.37 1.61 2.38 2.95 3.09 2.32 3.53 4.70 3.01 1.48 1.10 0.74 0.66 0.74 1.35 2.02 1.87 1.49 1.23 1.70 2.09 1.84 1.74 1.33 0.91 0.91 0.95 1.13 0.80 1.14 1.07 1.04 0.65 0.49 0.54 0.41 0.24 0.19 0.15 0.24
3.74 3.44 3.55 2.85 2.60 2.48 2.12 1.99 1.83 1.66 1.54 1.47 1.49 1.50 1.48 1.87 2.50 3.01 2.79 2.47 4.53 5.49 3.20 1.67 1.17 0.66 0.42 0.58 1.07 1.99 1.82 1.15 1.23 1.58 1.90 2.13 1.94 1.46 1.27 1.02 0.93 1.06 0.77 1.32 1.20 0.74 0.38 0.38 0.36 0.20 0.18 0.16 0.14 0.27
3.67 3.40 3.35 2.90 2.76 2.35 1.96 1.91 1.75 1.51 1.54 1.76 1.86 1.70 1.72 2.26 2.84 3.24 2.88 2.58 3.34 3.74 3.38 1.86 0.74 0.58 0.37 0.33 0.72 0.98 1.07 1.24 1.58 2.19 2.67 2.68 1.94 1.13 0.89 0.69 0.69 0.63 1.00 1.53 1.38 0.89 0.58 0.38 0.38 0.37 0.29 0.30 0.21 0.08
3.42 3.30 3.26 2.84 3.06 2.53 2.09 1.99 1.79 1.62 1.63 1.81 2.17 1.85 2.08 2.47 3.46 3.95 3.06 2.71 2.37 2.66 2.96 1.66 0.80 0.61 0.65 0.42 0.46 0.70 1.16 1.62 2.20 2.75 2.80 1.84 1.02 1.04 0.85 0.83 0.78 0.33 0.80 1.14 1.65 1.16 1.00 0.75 0.55 0.50 0.40 0.14 0.05 0.07
3.24 3.38 3.13 2.69 2.50 2.22 2.25 2.23 1.95 1.73 1.61 1.90 2.00 1.96 2.12 2.86 4.74 6.58 7.87 4.22 2.45 2.50 2.88 2.10 1.23 0.84 0.77 0.80 0.71 0.94 1.11 1.65 2.36 2.40 2.07 1.48 0.78 1.12 1.52 0.96 0.27 0.19 0.31 0.47 0.80 1.03 0.88 0.81 0.60 0.37 0.25 0.19 0.06 0.01
2.92 2.83 2.58 2.19 2.05 1.96 2.28 2.12 1.92 1.97 2.10 2.18 1.96 2.22 2.48 3.52 5.19 5.33 4.14 2.62 1.86 2.46 3.47 2.20 1.44 1.15 1.05 1.15 1.25 1.09 1.30 1.49 1.77 2.06 1.55 0.86 0.63 1.24 1.75 0.96 0.21 0.23 0.27 0.31 0.38 0.47 0.51 0.45 0.38 0.25 0.21 0.19 0.09 0.06
2.54 2.38 2.06 1.93 2.07 2.11 1.94 1.82 1.99 2.36 2.67 2.27 2.27 2.65 3.40 4.97 5.51 3.43 1.42 1.24 2.02 2.91 2.61 2.27 1.55 1.57 1.31 1.55 1.41 1.32 1.42 1.63 1.94 1.96 1.41 0.83 1.02 1.62 1.69 0.33 0.08 0.10 0.10 0.20 0.19 0.16 0.25 0.25 0.22 0.20 0.18 0.18 0.15 0.13
2.23 1.91 1.58 1.62 2.22 2.46 2.06 1.89 2.24 2.65 3.14 3.06 3.70 5.20 7.67 7.72 6.12 3.27 2.24 2.18 3.21 4.31 3.29 1.43 1.07 1.85 1.43 1.94 1.68 1.72 1.90 2.42 1.83 1.31 0.81 1.11 1.36 1.76 0.92 0.26 0.13 0.08 0.08 0.09 0.12 0.12 0.14 0.20 0.21 0.21 0.22 0.21 0.23 0.30
1.95 1.32 1.26 1.40 1.86 2.29 2.30 2.21 2.50 3.29 3.91 4.68 5.74 7.52 8.45 5.01 3.24 3.56 5.35 5.55 4.83 3.75 2.34 1.10 0.53 1.40 1.72 1.87 2.07 2.10 1.89 2.03 1.94 0.94 0.82 1.32 1.13 0.68 0.33 0.20 0.18 0.21 0.19 0.12 0.15 0.17 0.13 0.20 0.20 0.21 0.26 0.28 0.26 0.21
1.39 1.07 1.04 1.26 1.57 1.72 1.76 1.89 2.42 3.08 4.28 5.68 5.86 6.01 5.16 3.63 3.69 4.44 4.51 3.58 2.46 1.71 1.06 0.73 0.57 1.03 1.53 2.01 2.13 2.27 2.14 1.51 1.25 1.06 1.15 1.21 0.70 0.73 0.59 0.63 0.54 0.41 0.30 0.25 0.20 0.13 0.09 0.17 0.22 0.25 0.26 0.21 0.16 0.11
1.26 0.95 0.99 1.01 1.09 1.31 1.35 1.62 2.17 2.21 2.87 3.03 3.40 3.91 4.47 3.97 3.75 3.32 2.51 1.51 0.89 0.58 0.52 0.59 0.59 0.83 1.54 2.28 2.39 2.48 2.30 1.82 1.35 1.16 1.60 0.96 0.78 0.71 0.61 0.59 0.38 0.38 0.35 0.26 0.24 0.31 0.38 0.40 0.30 0.20 0.15 0.13 0.13 0.16
1.19 0.97 0.94 1.06 1.07 1.10 1.07 1.42 1.48 1.56 2.06 2.56 3.05 4.29 4.53 3.68 3.02 2.04 1.11 0.60 0.46 0.40 0.47 0.49 0.90 0.98 1.17 1.80 2.69 2.06 1.90 1.56 1.50 1.87 1.09 0.64 0.52 0.32 0.25 0.25 0.31 0.40 0.45 0.54 0.56 0.55 0.52 0.56 0.52 0.47 0.53 0.64 0.64 0.78
0.88 0.81 0.87 1.12 1.08 1.16 1.32 1.40 1.48 2.22 2.65 2.56 2.63 2.96 2.66 2.19 1.50 1.07 0.64 0.47 0.44 0.43 0.51 0.79 1.19 1.12 1.11 1.60 2.28 2.03 1.63 1.27 1.58 1.45 0.76 0.95 0.96 0.67 0.38 0.28 0.28 0.38 0.47 0.58 0.73 0.71 0.73 0.75 0.91 1.05 1.12 1.21 1.08 1.20
0.73 0.87 1.15 1.35 1.28 1.35 1.60 1.36 1.62 1.56 1.62 1.82 1.72 1.81 1.24 1.46 1.07 0.86 0.72 0.65 0.76 0.96 1.29 1.74 1.93 1.57 1.44 1.70 1.49 1.40 1.33 1.06 0.76 0.80 1.29 1.30 0.84 0.47 0.36 0.30 0.36 0.48 0.56 0.66 0.68 0.67 0.74 0.69 0.58 0.81 0.93 0.89 0.73 0.79
1.15 1.27 1.27 1.16 1.12 1.41 1.47 1.37 1.43 1.19 1.15 0.94 0.98 1.08 0.99 1.20 1.14 1.00 1.06 1.04 0.96 1.49 1.68 2.14 2.08 1.90 1.75 1.26 1.18 0.88 0.71 0.78 1.10 1.04 0.96 0.66 0.52 0.48 0.49 0.56 0.66 0.73 0.72 0.73 0.71 0.61 0.59 0.56 0.47 0.58 0.64 0.59 0.62 0.50
1.22 1.05 1.09 1.02 1.10 1.21 1.12 1.22 1.10 0.88 0.75 0.64 0.87 0.99 1.02 1.15 1.19 1.13 1.08 0.94 0.94 1.37 1.32 1.24 1.19 1.28 1.29 1.00 0.92 0.89 1.16 1.26 1.18 0.97 0.65 0.51 0.53 0.63 0.74 0.79 0.85 0.83 0.74 0.64 0.60 0.57 0.62 0.59 0.46 0.36 0.46 0.64 0.49 0.47
1.42 0.94 0.91 0.84 1.00 1.35 1.35 1.01 0.67 0.43 0.44 0.69 0.86 1.13 0.93 1.19 1.17 0.97 0.96 0.95 1.28 1.26 0.97 1.09 0.67 0.58 0.70 0.76 0.94 1.27 1.17 1.00 0.78 0.77 0.87 0.88 0.80 0.86 0.90 0.93 0.98 0.84 0.71 0.74 0.67 0.67 0.66 0.62 0.51 0.58 0.54 0.55 0.42 0.43
1.11 0.99 0.93 0.77 0.66 0.72 0.87 0.65 0.34 0.43 0.72 0.74 0.82 0.76 0.67 0.82 0.87 0.99 0.92 0.87 1.16 1.17 1.05 0.89 0.81 0.70 0.86 1.05 1.09 0.99 0.97 0.77 0.83 0.96 1.03 1.09 1.02 0.97 1.01 0.98 0.93 0.89 0.78 0.83 0.72 0.66 0.67 0.63 0.58 0.54 0.50 0.45 0.44 0.44
1.34 1.22 0.96 0.75 0.41 0.34 0.32 0.31 0.18 0.22 0.48 0.57 0.64 0.45 0.39 0.58 0.45 0.33 0.37 0.50 0.73 1.15 1.15 0.97 1.11 1.32 1.31 1.29 1.17 1.07 1.09 0.88 0.70 0.68 0.94 1.13 1.16 0.91 0.95 0.82 0.80 0.78 0.66 0.68 0.64 0.59 0.51 0.46 0.48 0.44 0.39 0.36 0.37 0.37
1.17 1.24 0.88 0.78 0.46 0.36 0.30 0.28 0.27 0.18 0.23 0.39 0.36 0.18 0.27 0.14 0.09 0.10 0.09 0.18 0.68 1.12 1.34 1.44 1.39 1.45 1.46 1.39 1.12 0.90 0.90 0.76 0.77 0.62 0.75 0.96 1.05 0.73 0.78 0.83 0.71 0.63 0.56 0.60 0.57 0.57 0.46 0.46 0.42 0.36 0.42 0.43 0.39 0.42
0.68 0.76 0.79 0.54 0.49 0.29 0.20 0.08 0.15 0.18 0.18 0.19 0.21 0.18 0.24 0.23 0.18 0.15 0.14 0.35 0.80 0.98 1.08 1.13 1.11 1.01 0.93 1.03 1.11 0.94 0.96 0.67 0.59 0.55 0.61 0.61 0.71 0.74 0.79 0.85 0.65 0.66 0.61 0.60 0.49 0.45 0.39 0.33 0.31 0.30 0.33 0.40 0.38 0.44
0.76 0.84 0.83 0.57 0.43 0.24 0.17 0.08 0.08 0.09 0.12 0.15 0.15 0.17 0.21 0.33 0.29 0.16 0.23 0.31 0.68 0.93 0.80 0.66 0.72 0.70 0.73 0.93 0.67 0.67 0.78 0.61 0.60 0.64 0.67 0.63 0.62 0.65 0.60 0.63 0.57 0.50 0.45 0.45 0.42 0.43 0.42 0.35 0.31 0.33 0.33 0.36 0.44 0.42
0.53 0.75 0.72 0.55 0.36 0.31 0.16 0.18 0.10 0.09 0.09 0.09 0.12 0.12 0.18 0.17 0.08 0.11 0.27 0.44 0.72 0.52 0.41 0.56 0.47 0.46 0.45 0.45 0.51 0.62 0.76 0.53 0.49 0.52 0.57 0.39 0.34 0.41 0.34 0.36 0.37 0.41 0.45 0.42 0.35 0.38 0.38 0.43 0.44 0.41 0.39 0.41 0.44 0.43
0.42 0.38 0.36 0.33 0.19 0.13 0.09 0.09 0.10 0.07 0.07 0.05 0.07 0.10 0.12 0.06 0.10 0.16 0.26 0.57 0.47 0.44 0.45 0.39 0.29 0.31 0.42 0.53 0.58 0.55 0.43 0.31 0.30 0.33 0.41 0.30 0.31 0.34 0.29 0.28 0.30 0.34 0.33 0.31 0.32 0.37 0.43 0.43 0.43 0.39 0.38 0.40 0.41 0.41
0.31 0.19 0.15 0.15 0.14 0.09 0.06 0.08 0.11 0.12 0.09 0.10 0.16 0.13 0.09 0.13 0.13 0.28 0.40 0.58 0.49 0.47 0.50 0.49 0.40 0.27 0.28 0.28 0.30 0.29 0.26 0.21 0.18 0.24 0.28 0.22 0.24 0.31 0.29 0.26 0.30 0.34 0.24 0.36 0.43 0.44 0.38 0.33 0.34 0.34 0.36 0.39 0.42 0.42
0.17 0.15 0.08 0.08 0.19 0.27 0.23 0.16 0.17 0.19 0.19 0.23 0.23 0.15 0.21 0.22 0.27 0.42 0.46 0.43 0.39 0.42 0.33 0.29 0.23 0.20 0.21 0.22 0.17 0.15 0.14 0.10 0.14 0.22 0.26 0.21 0.20 0.24 0.31 0.42 0.43 0.47 0.30 0.33 0.39 0.42 0.41 0.39 0.40 0.38 0.40 0.44 0.43 0.45
0.08 0.09 0.15 0.18 0.25 0.27 0.36 0.32 0.30 0.29 0.35 0.29 0.30 0.26 0.29 0.28 0.45 0.50 0.47 0.45 0.35 0.26 0.18 0.16 0.16 0.16 0.18 0.22 0.22 0.18 0.19 0.16 0.16 0.22 0.23 0.24 0.21 0.25 0.28 0.29 0.28 0.22 0.22 0.28 0.29 0.31 0.33 0.40 0.44 0.44 0.44 0.42 0.44 0.40
0.12 0.11 0.12 0.13 0.16 0.15 0.22 0.29 0.38 0.36 0.32 0.29 0.33 0.31 0.27 0.35 0.60 0.55 0.51 0.36 0.29 0.24 0.23 0.21 0.29 0.20 0.20 0.26 0.21 0.15 0.18 0.23 0.30 0.34 0.40 0.51 0.43 0.39 0.25 0.21 0.20 0.20 0.21 0.23 0.23 0.28 0.30 0.34 0.35 0.37 0.46 0.47 0.46 0.50
0.10 0.07 0.09 0.08 0.09 0.16 0.31 0.22 0.27 0.19 0.11 0.13 0.13 0.16 0.20 0.45 0.64 0.52 0.46 0.37 0.35 0.38 0.40 0.32 0.31 0.25 0.24 0.21 0.28 0.24 0.26 0.25 0.30 0.39 0.45 0.45 0.41 0.36 0.24 0.20 0.18 0.19 0.18 0.19 0.20 0.23 0.22 0.22 0.24 0.27 0.29 0.35 0.44 0.51
0.11 0.13 0.16 0.14 0.20 0.31 0.28 0.16 0.18 0.16 0.17 0.17 0.17 0.18 0.30 0.44 0.48 0.35 0.34 0.47 0.34 0.30 0.28 0.27 0.27 0.27 0.26 0.28 0.30 0.33 0.41 0.32 0.30 0.33 0.36 0.39 0.33 0.26 0.21 0.19 0.18 0.17 0.16 0.16 0.18 0.22 0.24 0.24 0.29 0.33 0.31 0.32 0.35 0.35
0.18 0.25 0.26 0.24 0.35 0.33 0.31 0.39 0.31 0.31 0.27 0.25 0.26 0.20 0.32 0.29 0.29 0.37 0.31 0.35 0.38 0.36 0.36 0.34 0.36 0.41 0.41 0.46 0.42 0.40 0.38 0.33 0.27 0.25 0.24 0.25 0.24 0.21 0.17 0.14 0.16 0.18 0.19 0.17 0.18 0.21 0.21 0.25 0.31 0.30 0.33 0.30 0.29 0.28
0.20 0.22 0.25 0.29 0.28 0.33 0.38 0.41 0.36 0.32 0.31 0.28 0.32 0.35 0.36 0.32 0.36 0.48 0.35 0.38 0.60 0.62 0.51 0.49 0.52 0.51 0.50 0.42 0.35 0.35 0.32 0.28 0.22 0.19 0.18 0.16 0.13 0.11 0.10 0.13 0.14 0.15 0.16 0.18 0.21 0.20 0.19 0.17 0.19 0.19 0.18 0.18 0.18 0.16

GFSWCAN_prec_precacc_228.txt.gz
Total_Precipitation_Accumulation
3.52 3.07 3.09 2.66 2.47 2.56 1.98 1.87 1.70 1.53 1.44 1.49 1.54 1.37 1.25 1.53 2.33 3.14 3.16 2.49 5.11 4.69 2.64 1.50 1.02 0.85 0.67 1.03 1.84 1.98 1.92 2.18 2.47 2.80 3.19 2.67 1.74 1.04 0.64 0.63 0.95 0.88 1.17 1.38 1.48 2.09 1.57 0.24 0.33 0.94 1.62 0.95 0.82 0.72
3.73 3.17 3.17 2.85 2.50 2.46 1.99 1.96 1.84 1.57 1.37 1.31 1.44 1.38 1.38 1.62 2.39 2.98 3.10 2.32 3.53 4.76 3.09 1.50 1.11 0.76 0.72 0.83 1.45 2.15 1.99 1.56 1.31 1.81 2.24 2.00 1.87 1.39 0.93 0.91 0.95 1.13 0.80 1.14 1.08 1.07 0.65 0.49 0.54 0.41 0.24 0.19 0.15 0.24
3.74 3.44 3.55 2.85 2.60 2.48 2.12 1.99 1.83 1.66 1.54 1.47 1.49 1.50 1.49 1.89 2.52 3.05 2.80 2.47 4.53 5.50 3.22 1.68 1.18 0.66 0.43 0.63 1.17 2.12 2.00 1.31 1.38 1.75 2.12 2.43 2.25 1.70 1.42 1.10 0.94 1.07 0.77 1.33 1.20 0.75 0.38 0.38 0.36 0.20 0.18 0.16 0.14 0.27
3.67 3.40 3.35 2.90 2.76 2.35 1.97 1.91 1.75 1.52 1.54 1.76 1.86 1.70 1.72 2.27 2.87 3.29 2.92 2.59 3.34 3.74 3.39 1.86 0.74 0.58 0.37 0.33 0.73 1.02 1.12 1.35 1.72 2.35 2.88 2.95 2.19 1.33 1.05 0.78 0.73 0.66 1.02 1.56 1.41 0.92 0.59 0.39 0.38 0.38 0.29 0.30 0.21 0.08
3.43 3.30 3.27 2.85 3.06 2.53 2.09 1.99 1.79 1.63 1.64 1.81 2.18 1.86 2.08 2.48 3.51 4.02 3.13 2.72 2.37 2.66 2.96 1.66 0.80 0.61 0.65 0.42 0.47 0.71 1.17 1.66 2.27 2.87 2.98 2.00 1.14 1.16 0.99 0.96 0.88 0.35 0.81 1.15 1.69 1.18 1.01 0.76 0.55 0.50 0.40 0.14 0.06 0.07
3.24 3.39 3.14 2.70 2.51 2.22 2.26 2.24 1.95 1.73 1.61 1.90 2.01 1.98 2.14 2.88 4.83 6.82 8.16 4.37 2.46 2.50 2.89 2.10 1.23 0.84 0.77 0.80 0.72 0.95 1.12 1.67 2.41 2.48 2.15 1.56 0.82 1.16 1.60 1.02 0.28 0.19 0.31 0.48 0.84 1.12 0.97 0.87 0.62 0.38 0.25 0.19 0.06 0.01
2.93 2.83 2.59 2.20 2.08 1.98 2.29 2.12 1.92 1.97 2.10 2.19 1.97 2.23 2.50 3.57 5.32 5.57 4.25 2.70 1.88 2.48 3.48 2.21 1.44 1.15 1.05 1.15 1.25 1.10 1.32 1.52 1.79 2.10 1.60 0.89 0.65 1.30 1.91 1.03 0.21 0.23 0.27 0.31 0.39 0.47 0.51 0.45 0.38 0.25 0.21 0.19 0.09 0.06
2.55 2.39 2.06 1.94 2.10 2.13 1.95 1.82 1.99 2.36 2.67 2.28 2.29 2.70 3.49 5.11 5.78 3.62 1.47 1.26 2.03 2.94 2.66 2.29 1.55 1.57 1.31 1.56 1.41 1.32 1.43 1.64 1.98 2.00 1.46 0.87 1.06 1.70 1.82 0.35 0.08 0.10 0.10 0.20 0.20 0.16 0.25 0.25 0.22 0.20 0.18 0.18 0.15 0.13
2.24 1.92 1.58 1.63 2.24 2.46 2.06 1.89 2.25 2.67 3.17 3.11 3.76 5.31 7.81 7.85 6.30 3.40 2.33 2.25 3.25 4.36 3.31 1.43 1.07 1.85 1.43 1.95 1.68 1.72 1.91 2.43 1.87 1.38 0.86 1.15 1.42 1.82 0.93 0.26 0.13 0.08 0.08 0.09 0.12 0.12 0.14 0.20 0.21 0.21 0.22 0.21 0.23 0.30
1.95 1.32 1.26 1.41 1.87 2.30 2.31 2.22 2.53 3.34 3.97 4.72 5.79 7.61 8.60 5.17 3.32 3.64 5.49 5.74 5.05 3.88 2.34 1.10 0.53 1.40 1.72 1.87 2.08 2.11 1.91 2.06 1.99 0.95 0.84 1.36 1.15 0.68 0.33 0.20 0.18 0.21 0.19 0.12 0.15 0.17 0.13 0.20 0.20 0.21 0.26 0.28 0.26 0.22
1.39 1.07 1.04 1.27 1.58 1.73 1.77 1.89 2.43 3.15 4.34 5.68 5.87 6.08 5.28 3.71 3.76 4.52 4.67 3.73 2.61 1.76 1.06 0.73 0.57 1.04 1.53 2.02 2.13 2.27 2.16 1.54 1.28 1.07 1.17 1.22 0.70 0.73 0.59 0.63 0.54 0.41 0.30 0.25 0.20 0.13 0.09 0.17 0.22 0.25 0.27 0.26 0.23 0.20
1.27 0.95 0.99 1.01 1.10 1.32 1.36 1.63 2.18 2.24 2.87 3.03 3.41 3.93 4.49 3.98 3.80 3.36 2.54 1.53 0.89 0.58 0.52 0.59 0.59 0.83 1.54 2.28 2.40 2.51 2.34 1.85 1.36 1.16 1.60 0.96 0.78 0.71 0.61 0.59 0.38 0.38 0.35 0.26 0.24 0.31 0.38 0.40 0.31 0.24 0.21 0.21 0.19 0.21
1.19 0.97 0.94 1.06 1.07 1.10 1.07 1.42 1.48 1.56 2.06 2.56 3.05 4.29 4.53 3.68 3.02 2.04 1.11 0.60 0.46 0.40 0.47 0.50 0.91 1.00 1.19 1.81 2.70 2.07 1.92 1.58 1.51 1.87 1.09 0.64 0.52 0.32 0.25 0.25 0.31 0.40 0.45 0.54 0.56 0.55 0.53 0.58 0.57 0.55 0.64 0.76 0.73 0.80
0.90 0.81 0.87 1.12 1.08 1.16 1.32 1.40 1.48 2.22 2.65 2.56 2.63 2.96 2.66 2.19 1.50 1.07 0.64 0.47 0.44 0.43 0.52 0.79 1.20 1.13 1.13 1.63 2.30 2.05 1.64 1.27 1.58 1.46 0.76 0.95 0.96 0.67 0.38 0.28 0.28 0.38 0.47 0.59 0.74 0.72 0.75 0.78 0.94 1.08 1.16 1.23 1.09 1.20
0.74 0.88 1.15 1.35 1.28 1.35 1.60 1.36 1.62 1.56 1.62 1.82 1.72 1.81 1.24 1.46 1.07 0.86 0.72 0.65 0.76 0.96 1.29 1.75 1.94 1.57 1.45 1.72 1.50 1.41 1.33 1.06 0.76 0.80 1.29 1.30 0.84 0.47 0.36 0.30 0.36 0.49 0.57 0.67 0.69 0.67 0.74 0.69 0.58 0.81 0.93 0.89 0.73 0.79
1.15 1.27 1.27 1.16 1.12 1.41 1.47 1.37 1.43 1.19 1.15 0.94 0.98 1.08 0.99 1.20 1.14 1.00 1.06 1.04 0.96 1.49 1.68 2.14 2.09 1.90 1.76 1.27 1.18 0.88 0.71 0.78 1.10 1.04 0.96 0.66 0.52 0.48 0.50 0.57 0.70 0.76 0.72 0.74 0.71 0.61 0.59 0.56 0.47 0.58 0.64 0.59 0.62 0.50
1.22 1.05 1.09 1.02 1.10 1.21 1.12 1.22 1.10 0.88 0.75 0.64 0.87 0.99 1.02 1.15 1.19 1.13 1.08 0.94 0.94 1.37 1.32 1.24 1.19 1.28 1.29 1.01 0.92 0.89 1.16 1.26 1.18 0.97 0.65 0.51 0.53 0.63 0.75 0.83 0.92 0.90 0.75 0.64 0.60 0.57 0.62 0.59 0.46 0.36 0.46 0.64 0.49 0.47
1.42 0.94 0.91 0.84 1.00 1.35 1.35 1.01 0.67 0.43 0.44 0.69 0.86 1.13 0.93 1.19 1.17 0.98 0.97 0.95 1.28 1.27 0.98 1.09 0.67 0.58 0.70 0.76 0.94 1.27 1.17 1.00 0.78 0.77 0.87 0.88 0.80 0.87 0.90 0.94 0.98 0.84 0.71 0.74 0.67 0.67 0.66 0.62 0.51 0.58 0.54 0.55 0.42 0.43
1.11 0.99 0.93 0.77 0.66 0.72 0.87 0.65 0.34 0.43 0.72 0.74 0.82 0.76 0.68 0.82 0.88 0.99 0.93 0.88 1.17 1.18 1.07 0.92 0.82 0.71 0.86 1.05 1.09 0.99 0.97 0.77 0.84 0.96 1.03 1.09 1.03 0.97 1.02 0.98 0.93 0.89 0.78 0.83 0.72 0.66 0.67 0.63 0.58 0.54 0.50 0.45 0.44 0.44
1.34 1.22 0.96 0.75 0.41 0.34 0.32 0.31 0.18 0.22 0.48 0.57 0.64 0.45 0.39 0.58 0.45 0.33 0.38 0.52 0.77 1.20 1.19 0.99 1.11 1.32 1.31 1.29 1.17 1.07 1.09 0.88 0.70 0.68 0.94 1.14 1.16 0.91 0.95 0.82 0.80 0.78 0.66 0.68 0.64 0.59 0.51 0.46 0.48 0.44 0.39 0.36 0.37 0.37
1.17 1.24 0.88 0.78 0.46 0.36 0.30 0.28 0.27 0.18 0.23 0.39 0.36 0.19 0.29 0.15 0.10 0.10 0.10 0.19 0.73 1.15 1.35 1.44 1.39 1.45 1.46 1.39 1.12 0.90 0.90 0.76 0.77 0.62 0.75 0.96 1.05 0.73 0.78 0.83 0.71 0.63 0.56 0.60 0.57 0.57 0.46 0.46 0.42 0.36 0.42 0.43 0.40 0.42
0.68 0.76 0.79 0.54 0.49 0.29 0.20 0.08 0.15 0.18 0.18 0.19 0.21 0.19 0.28 0.25 0.18 0.16 0.15 0.37 0.82 0.98 1.08 1.13 1.11 1.01 0.93 1.03 1.11 0.94 0.96 0.67 0.59 0.55 0.61 0.61 0.71 0.74 0.80 0.85 0.65 0.66 0.61 0.60 0.49 0.45 0.39 0.33 0.31 0.30 0.33 0.40 0.38 0.45
0.76 0.84 0.83 0.57 0.43 0.24 0.17 0.08 0.08 0.09 0.12 0.15 0.16 0.17 0.22 0.33 0.29 0.16 0.23 0.31 0.68 0.93 0.80 0.66 0.72 0.70 0.73 0.93 0.67 0.67 0.78 0.61 0.60 0.64 0.67 0.63 0.62 0.65 0.60 0.63 0.57 0.50 0.45 0.45 0.42 0.43 0.42 0.35 0.31 0.33 0.33 0.36 0.44 0.42
0.53 0.75 0.72 0.55 0.36 0.31 0.16 0.18 0.10 0.09 0.10 0.09 0.13 0.13 0.18 0.17 0.08 0.11 0.27 0.44 0.72 0.52 0.41 0.56 0.47 0.46 0.45 0.45 0.51 0.62 0.76 0.53 0.49 0.52 0.57 0.39 0.34 0.41 0.34 0.36 0.37 0.41 0.45 0.42 0.35 0.38 0.38 0.43 0.44 0.41 0.39 0.41 0.44 0.43
0.42 0.38 0.36 0.33 0.19 0.13 0.09 0.10 0.10 0.08 0.07 0.05 0.07 0.10 0.12 0.06 0.10 0.16 0.26 0.57 0.47 0.44 0.45 0.39 0.29 0.31 0.42 0.53 0.58 0.55 0.43 0.31 0.30 0.33 0.41 0.30 0.31 0.34 0.29 0.28 0.30 0.34 0.33 0.31 0.32 0.37 0.43 0.44 0.44 0.39 0.38 0.40 0.41 0.41
0.31 0.19 0.15 0.15 0.14 0.09 0.06 0.08 0.11 0.12 0.09 0.10 0.16 0.14 0.09 0.13 0.13 0.28 0.40 0.58 0.49 0.47 0.50 0.49 0.40 0.27 0.28 0.28 0.30 0.29 0.26 0.21 0.18 0.24 0.28 0.22 0.24 0.31 0.29 0.26 0.30 0.34 0.24 0.36 0.43 0.44 0.38 0.33 0.35 0.34 0.36 0.39 0.42 0.42
0.17 0.15 0.08 0.08 0.19 0.27 0.23 0.16 0.17 0.19 0.19 0.23 0.23 0.15 0.21 0.22 0.27 0.42 0.46 0.43 0.39 0.42 0.33 0.29 0.23 0.20 0.21 0.22 0.17 0.15 0.14 0.10 0.14 0.22 0.26 0.21 0.20 0.24 0.31 0.42 0.43 0.47 0.30 0.33 0.39 0.42 0.41 0.40 0.40 0.38 0.40 0.45 0.43 0.45
0.08 0.09 0.15 0.18 0.25 0.27 0.36 0.32 0.30 0.29 0.35 0.29 0.30 0.26 0.29 0.28 0.45 0.50 0.47 0.45 0.35 0.26 0.18 0.16 0.16 0.16 0.18 0.22 0.22 0.18 0.19 0.16 0.16 0.22 0.23 0.24 0.21 0.25 0.28 0.29 0.28 0.22 0.22 0.28 0.29 0.31 0.33 0.40 0.44 0.44 0.45 0.42 0.44 0.41
0.12 0.11 0.12 0.13 0.16 0.15 0.22 0.29 0.38 0.36 0.32 0.29 0.33 0.31 0.27 0.35 0.60 0.55 0.51 0.36 0.30 0.24 0.23 0.21 0.30 0.20 0.20 0.26 0.21 0.15 0.18 0.23 0.30 0.34 0.40 0.51 0.43 0.39 0.25 0.21 0.20 0.20 0.21 0.23 0.23 0.28 0.30 0.35 0.35 0.37 0.46 0.47 0.46 0.50
0.10 0.07 0.09 0.08 0.09 0.16 0.31 0.22 0.27 0.19 0.11 0.13 0.13 0.16 0.20 0.45 0.65 0.52 0.46 0.37 0.35 0.38 0.40 0.33 0.31 0.25 0.24 0.21 0.28 0.24 0.26 0.25 0.30 0.39 0.45 0.45 0.41 0.36 0.24 0.20 0.18 0.19 0.18 0.19 0.20 0.24 0.22 0.22 0.24 0.27 0.29 0.36 0.44 0.51
0.11 0.13 0.16 0.14 0.20 0.31 0.28 0.16 0.19 0.16 0.17 0.17 0.17 0.18 0.30 0.44 0.48 0.35 0.34 0.47 0.34 0.30 0.28 0.27 0.27 0.27 0.26 0.28 0.30 0.33 0.41 0.32 0.30 0.33 0.36 0.39 0.33 0.26 0.21 0.19 0.18 0.17 0.16 0.16 0.18 0.23 0.24 0.24 0.29 0.33 0.31 0.32 0.35 0.35
0.19 0.26 0.27 0.24 0.35 0.33 0.31 0.39 0.31 0.31 0.27 0.25 0.26 0.20 0.32 0.29 0.29 0.37 0.31 0.35 0.38 0.36 0.36 0.34 0.36 0.41 0.41 0.46 0.42 0.40 0.38 0.33 0.27 0.25 0.24 0.25 0.24 0.21 0.17 0.14 0.16 0.18 0.19 0.17 0.18 0.21 0.21 0.25 0.31 0.30 0.33 0.30 0.29 0.28
0.21 0.22 0.26 0.30 0.29 0.34 0.38 0.41 0.36 0.32 0.31 0.28 0.32 0.35 0.36 0.32 0.36 0.48 0.35 0.38 0.60 0.62 0.51 0.49 0.52 0.51 0.50 0.42 0.35 0.35 0.32 0.28 0.22 0.19 0.18 0.16 0.13 0.11 0.10 0.13 0.14 0.15 0.16 0.18 0.21 0.20 0.19 0.17 0.19 0.19 0.18 0.18 0.18 0.16

GFSWCAN_prec_precacc_231.txt.gz
Total_Precipitation_Accumulation
3.52 3.07 3.09 2.66 2.47 2.56 1.98 1.87 1.70 1.54 1.45 1.50 1.54 1.37 1.25 1.54 2.37 3.19 3.25 2.59 5.26 4.87 2.78 1.58 1.13 0.95 0.74 1.09 1.91 2.03 1.97 2.28 2.58 3.06 3.51 2.87 1.82 1.07 0.66 0.63 0.95 0.89 1.17 1.38 1.49 2.13 1.60 0.24 0.33 0.94 1.62 0.95 0.82 0.72
3.73 3.17 3.17 2.85 2.50 2.46 1.99 1.96 1.84 1.58 1.38 1.32 1.45 1.38 1.39 1.62 2.41 3.02 3.13 2.37 3.64 4.91 3.24 1.58 1.21 0.87 0.81 0.93 1.55 2.24 2.05 1.59 1.37 1.88 2.33 2.08 1.96 1.44 0.94 0.91 0.95 1.14 0.81 1.15 1.09 1.08 0.66 0.49 0.54 0.41 0.24 0.19 0.15 0.24
3.74 3.44 3.55 2.85 2.60 2.49 2.12 1.99 1.83 1.66 1.55 1.48 1.50 1.51 1.50 1.90 2.53 3.08 2.81 2.49 4.56 5.54 3.25 1.71 1.19 0.68 0.49 0.71 1.25 2.24 2.18 1.46 1.52 1.89 2.29 2.62 2.44 1.82 1.45 1.11 0.95 1.07 0.77 1.34 1.22 0.75 0.38 0.38 0.36 0.20 0.18 0.16 0.14 0.27
3.67 3.40 3.36 2.90 2.76 2.35 1.97 1.91 1.75 1.52 1.54 1.76 1.87 1.71 1.73 2.28 2.89 3.32 2.93 2.60 3.35 3.75 3.40 1.87 0.74 0.58 0.37 0.34 0.75 1.06 1.19 1.46 1.87 2.54 3.11 3.15 2.41 1.57 1.25 0.91 0.82 0.69 1.05 1.58 1.47 0.99 0.62 0.41 0.39 0.39 0.31 0.31 0.21 0.08
3.44 3.31 3.27 2.85 3.06 2.54 2.10 1.99 1.79 1.63 1.64 1.81 2.18 1.86 2.09 2.49 3.54 4.05 3.14 2.72 2.37 2.67 2.98 1.67 0.80 0.61 0.65 0.42 0.47 0.71 1.18 1.69 2.30 2.94 3.12 2.16 1.25 1.24 1.07 1.03 0.93 0.36 0.84 1.19 1.78 1.28 1.11 0.83 0.59 0.53 0.42 0.15 0.06 0.08
3.24 3.39 3.15 2.71 2.52 2.23 2.27 2.24 1.95 1.73 1.61 1.90 2.01 1.98 2.14 2.89 4.87 6.86 8.24 4.43 2.47 2.52 2.90 2.12 1.23 0.84 0.77 0.80 0.72 0.96 1.14 1.69 2.42 2.50 2.18 1.60 0.85 1.19 1.70 1.06 0.28 0.19 0.31 0.48 0.87 1.21 1.09 0.94 0.66 0.42 0.29 0.22 0.09 0.03
2.93 2.84 2.59 2.21 2.09 1.99 2.30 2.13 1.92 1.97 2.10 2.19 1.97 2.24 2.50 3.59 5.34 5.60 4.29 2.74 1.91 2.50 3.51 2.23 1.45 1.15 1.05 1.15 1.26 1.11 1.35 1.55 1.79 2.11 1.61 0.90 0.66 1.33 2.00 1.08 0.21 0.23 0.27 0.31 0.41 0.51 0.52 0.45 0.38 0.25 0.22 0.19 0.09 0.06
2.56 2.39 2.06 1.95 2.11 2.14 1.95 1.82 1.99 2.36 2.68 2.28 2.31 2.73 3.54 5.21 5.85 3.68 1.49 1.26 2.03 2.95 2.67 2.32 1.56 1.57 1.31 1.56 1.41 1.33 1.45 1.65 1.98 2.01 1.47 0.88 1.08 1.74 1.87 0.36 0.08 0.10 0.10 0.20 0.20 0.16 0.25 0.25 0.22 0.20 0.18 0.18 0.15 0.13
2.24 1.92 1.58 1.64 2.24 2.47 2.06 1.89 2.26 2.68 3.19 3.13 3.78 5.32 7.87 7.89 6.39 3.49 2.39 2.28 3.26 4.37 3.33 1.44 1.08 1.86 1.43 1.95 1.69 1.73 1.91 2.45 1.88 1.39 0.87 1.18 1.44 1.85 0.94 0.26 0.13 0.08 0.08 0.09 0.12 0.12 0.14 0.20 0.21 0.21 0.22 0.21 0.23 0.30
1.95 1.32 1.26 1.41 1.87 2.30 2.31 2.22 2.54 3.34 3.98 4.73 5.80 7.64 8.71 5.25 3.41 3.72 5.63 5.86 5.14 3.92 2.35 1.10 0.53 1.41 1.72 1.87 2.09 2.12 1.92 2.07 2.01 0.96 0.86 1.38 1.15 0.68 0.33 0.20 0.18 0.21 0.19 0.12 0.16 0.17 0.13 0.20 0.20 0.21 0.26 0.28 0.26 0.22
1.40 1.08 1.05 1.29 1.60 1.74 1.78 1.90 2.45 3.17 4.36 5.71 5.92 6.16 5.45 3.80 3.85 4.64 4.84 3.87 2.72 1.82 1.07 0.74 0.57 1.04 1.53 2.02 2.14 2.28 2.18 1.56 1.31 1.09 1.20 1.25 0.70 0.73 0.59 0.63 0.54 0.41 0.30 0.25 0.20 0.13 0.09 0.17 0.22 0.25 0.27 0.26 0.23 0.20
1.27 0.96 1.01 1.04 1.15 1.37 1.41 1.68 2.21 2.25 2.88 3.04 3.42 3.97 4.54 4.03 3.86 3.42 2.59 1.54 0.90 0.59 0.52 0.59 0.59 0.84 1.55 2.29 2.41 2.52 2.35 1.86 1.38 1.17 1.61 0.96 0.79 0.71 0.61 0.59 0.38 0.38 0.35 0.26 0.24 0.31 0.38 0.40 0.31 0.24 0.21 0.22 0.23 0.26
1.20 0.98 0.94 1.07 1.08 1.12 1.09 1.44 1.49 1.56 2.06 2.56 3.05 4.29 4.54 3.69 3.03 2.05 1.12 0.60 0.46 0.40 0.47 0.50 0.91 1.00 1.19 1.82 2.73 2.09 1.93 1.60 1.52 1.88 1.09 0.64 0.52 0.32 0.25 0.25 0.31 0.40 0.45 0.54 0.56 0.55 0.53 0.58 0.57 0.56 0.68 0.84 0.81 0.84
0.90 0.81 0.87 1.12 1.08 1.16 1.32 1.40 1.48 2.22 2.65 2.57 2.63 2.96 2.66 2.19 1.50 1.08 0.65 0.47 0.44 0.43 0.52 0.79 1.21 1.15 1.14 1.64 2.33 2.08 1.66 1.28 1.59 1.47 0.77 0.95 0.96 0.67 0.38 0.28 0.28 0.38 0.47 0.59 0.75 0.73 0.75 0.78 0.95 1.11 1.23 1.30 1.14 1.21
0.74 0.88 1.15 1.35 1.28 1.35 1.60 1.36 1.62 1.56 1.62 1.82 1.72 1.81 1.24 1.46 1.07 0.86 0.72 0.65 0.76 0.96 1.29 1.75 1.95 1.59 1.46 1.75 1.51 1.43 1.34 1.07 0.77 0.80 1.30 1.30 0.84 0.47 0.36 0.31 0.37 0.49 0.58 0.67 0.69 0.68 0.75 0.69 0.58 0.81 0.93 0.89 0.73 0.79
1.15 1.27 1.27 1.16 1.12 1.41 1.47 1.37 1.43 1.19 1.15 0.94 0.98 1.08 0.99 1.20 1.14 1.00 1.06 1.04 0.96 1.49 1.68 2.15 2.10 1.92 1.77 1.29 1.19 0.89 0.72 0.78 1.10 1.04 0.96 0.66 0.52 0.48 0.50 0.57 0.71 0.77 0.73 0.74 0.71 0.61 0.59 0.56 0.47 0.58 0.64 0.59 0.62 0.50
1.22 1.05 1.09 1.02 1.10 1.21 1.12 1.22 1.10 0.88 0.75 0.64 0.87 0.99 1.02 1.15 1.19 1.13 1.08 0.95 0.94 1.38 1.33 1.25 1.20 1.29 1.30 1.02 0.92 0.90 1.16 1.27 1.19 0.97 0.65 0.51 0.53 0.63 0.75 0.84 0.97 0.95 0.75 0.64 0.60 0.57 0.62 0.59 0.46 0.36 0.46 0.64 0.49 0.47
1.42 0.94 0.91 0.84 1.00 1.35 1.35 1.01 0.67 0.43 0.44 0.69 0.86 1.13 0.93 1.19 1.17 0.98 0.97 0.95 1.28 1.27 0.98 1.10 0.67 0.59 0.70 0.76 0.95 1.28 1.17 1.01 0.78 0.77 0.87 0.88 0.80 0.87 0.91 0.94 0.99 0.84 0.71 0.74 0.67 0.67 0.66 0.62 0.51 0.58 0.54 0.55 0.42 0.43
1.11 0.99 0.93 0.77 0.66 0.72 0.87 0.65 0.34 0.43 0.72 0.74 0.82 0.76 0.68 0.82 0.88 0.99 0.93 0.88 1.17 1.19 1.09 0.93 0.82 0.71 0.86 1.05 1.10 1.01 0.97 0.77 0.84 0.96 1.03 1.09 1.03 0.97 1.02 0.98 0.93 0.89 0.78 0.83 0.72 0.66 0.67 0.63 0.58 0.54 0.50 0.45 0.44 0.44
1.34 1.22 0.96 0.75 0.41 0.34 0.32 0.31 0.18 0.22 0.48 0.57 0.64 0.45 0.39 0.58 0.45 0.33 0.39 0.52 0.78 1.22 1.21 1.01 1.12 1.33 1.32 1.30 1.18 1.08 1.10 0.88 0.70 0.68 0.94 1.14 1.17 0.91 0.95 0.82 0.80 0.78 0.66 0.68 0.64 0.59 0.51 0.46 0.48 0.44 0.39 0.36 0.37 0.37
1.17 1.24 0.88 0.78 0.46 0.36 0.30 0.28 0.27 0.18 0.23 0.39 0.36 0.19 0.29 0.16 0.11 0.11 0.11 0.20 0.77 1.18 1.36 1.44 1.40 1.46 1.46 1.39 1.12 0.90 0.90 0.76 0.77 0.62 0.76 0.96 1.05 0.73 0.78 0.83 0.71 0.63 0.56 0.60 0.57 0.57 0.46 0.46 0.42 0.36 0.42 0.43 0.40 0.42
0.68 0.76 0.79 0.54 0.49 0.29 0.20 0.08 0.15 0.18 0.18 0.19 0.21 0.19 0.29 0.27 0.21 0.18 0.17 0.39 0.83 0.99 1.08 1.14 1.11 1.01 0.93 1.03 1.11 0.94 0.96 0.67 0.59 0.55 0.61 0.61 0.71 0.74 0.80 0.85 0.65 0.66 0.61 0.61 0.49 0.45 0.39 0.33 0.31 0.30 0.33 0.40 0.39 0.45
0.76 0.84 0.83 0.57 0.43 0.24 0.17 0.08 0.08 0.09 0.12 0.15 0.16 0.18 0.22 0.35 0.32 0.19 0.25 0.32 0.68 0.93 0.80 0.66 0.72 0.70 0.73 0.93 0.67 0.67 0.78 0.61 0.60 0.64 0.67 0.63 0.62 0.65 0.60 0.63 0.57 0.50 0.45 0.45 0.42 0.43 0.42 0.35 0.31 0.33 0.33 0.36 0.44 0.43
0.53 0.75 0.72 0.55 0.36 0.31 0.16 0.18 0.10 0.09 0.10 0.10 0.13 0.13 0.18 0.18 0.09 0.12 0.27 0.44 0.72 0.52 0.41 0.56 0.47 0.46 0.45 0.45 0.51 0.62 0.76 0.53 0.49 0.52 0.57 0.39 0.34 0.41 0.34 0.36 0.37 0.41 0.45 0.42 0.35 0.38 0.38 0.43 0.44 0.41 0.40 0.42 0.44 0.43
0.42 0.38 0.36 0.33 0.19 0.13 0.09 0.10 0.11 0.08 0.07 0.05 0.07 0.10 0.12 0.06 0.11 0.16 0.26 0.57 0.47 0.44 0.45 0.39 0.29 0.31 0.42 0.53 0.58 0.55 0.43 0.31 0.30 0.33 0.41 0.30 0.31 0.34 0.29 0.28 0.30 0.34 0.33 0.31 0.32 0.37 0.43 0.44 0.44 0.39 0.38 0.40 0.42 0.41
0.31 0.19 0.15 0.15 0.14 0.09 0.06 0.09 0.11 0.12 0.09 0.10 0.16 0.14 0.09 0.14 0.14 0.28 0.40 0.58 0.49 0.47 0.50 0.49 0.40 0.27 0.28 0.28 0.30 0.29 0.26 0.21 0.18 0.24 0.28 0.22 0.24 0.31 0.29 0.26 0.31 0.34 0.24 0.36 0.43 0.44 0.38 0.33 0.35 0.34 0.36 0.39 0.42 0.43
0.17 0.15 0.08 0.08 0.19 0.27 0.23 0.16 0.17 0.19 0.19 0.23 0.23 0.16 0.21 0.22 0.27 0.42 0.46 0.43 0.39 0.42 0.33 0.29 0.23 0.20 0.21 0.22 0.17 0.15 0.14 0.10 0.14 0.22 0.26 0.21 0.20 0.24 0.31 0.42 0.43 0.47 0.30 0.33 0.39 0.42 0.41 0.40 0.40 0.38 0.41 0.45 0.44 0.45
0.08 0.09 0.15 0.18 0.25 0.27 0.36 0.33 0.30 0.29 0.35 0.29 0.30 0.26 0.29 0.28 0.45 0.50 0.47 0.45 0.35 0.26 0.18 0.16 0.16 0.16 0.18 0.22 0.22 0.18 0.19 0.16 0.16 0.22 0.23 0.24 0.21 0.25 0.28 0.29 0.28 0.22 0.22 0.28 0.29 0.31 0.33 0.40 0.45 0.44 0.45 0.42 0.44 0.41
0.13 0.11 0.12 0.13 0.16 0.15 0.22 0.29 0.38 0.36 0.32 0.29 0.33 0.31 0.27 0.35 0.60 0.55 0.51 0.36 0.30 0.24 0.23 0.21 0.30 0.20 0.20 0.26 0.21 0.15 0.18 0.23 0.30 0.34 0.40 0.51 0.43 0.39 0.25 0.21 0.20 0.20 0.21 0.23 0.23 0.28 0.30 0.35 0.36 0.37 0.46 0.47 0.47 0.51
0.10 0.07 0.09 0.08 0.09 0.16 0.31 0.22 0.27 0.19 0.11 0.13 0.13 0.16 0.20 0.45 0.65 0.52 0.46 0.37 0.35 0.38 0.41 0.33 0.32 0.25 0.25 0.21 0.28 0.24 0.27 0.25 0.30 0.39 0.45 0.45 0.41 0.36 0.24 0.20 0.18 0.19 0.18 0.19 0.20 0.24 0.22 0.23 0.25 0.27 0.30 0.36 0.44 0.51
0.11 0.14 0.16 0.14 0.20 0.31 0.28 0.16 0.19 0.16 0.17 0.17 0.17 0.18 0.30 0.44 0.48 0.35 0.34 0.47 0.34 0.30 0.28 0.27 0.28 0.28 0.26 0.28 0.30 0.33 0.41 0.32 0.30 0.33 0.36 0.39 0.33 0.26 0.21 0.19 0.18 0.17 0.16 0.16 0.18 0.23 0.24 0.25 0.30 0.33 0.31 0.32 0.35 0.35
0.19 0.27 0.28 0.25 0.36 0.33 0.31 0.39 0.32 0.32 0.27 0.25 0.26 0.20 0.32 0.29 0.29 0.37 0.32 0.35 0.39 0.36 0.37 0.34 0.36 0.41 0.41 0.46 0.42 0.40 0.38 0.33 0.27 0.25 0.24 0.25 0.24 0.21 0.17 0.14 0.16 0.18 0.19 0.17 0.18 0.21 0.21 0.25 0.31 0.31 0.33 0.30 0.29 0.28
0.23 0.24 0.29 0.32 0.30 0.34 0.39 0.41 0.36 0.33 0.32 0.28 0.32 0.35 0.37 0.32 0.36 0.48 0.36 0.39 0.61 0.62 0.51 0.49 0.53 0.51 0.50 0.42 0.35 0.35 0.32 0.28 0.22 0.19 0.18 0.16 0.13 0.11 0.10 0.13 0.14 0.15 0.16 0.18 0.21 0.20 0.19 0.17 0.19 0.19 0.18 0.18 0.18 0.16

GFSWCAN_prec_precacc_234.txt.gz
Total_Precipitation_Accumulation
3.52 3.08 3.09 2.67 2.48 2.56 1.98 1.91 1.78 1.60 1.60 1.72 1.78 1.58 1.49 1.82 2.66 3.46 3.48 2.72 5.33 4.96 2.87 1.63 1.17 1.00 0.79 1.13 1.97 2.07 2.05 2.46 2.80 3.33 3.84 3.18 1.98 1.13 0.67 0.63 0.96 0.91 1.18 1.39 1.51 2.19 1.65 0.24 0.33 0.94 1.62 0.95 0.82 0.72
3.73 3.18 3.18 2.85 2.50 2.47 1.99 1.96 1.87 1.63 1.46 1.45 1.64 1.54 1.52 1.79 2.62 3.24 3.37 2.54 3.76 5.05 3.40 1.69 1.30 0.97 0.90 1.04 1.67 2.38 2.21 1.82 1.64 2.18 2.67 2.30 2.10 1.51 0.97 0.93 0.96 1.22 0.90 1.17 1.09 1.09 0.66 0.49 0.54 0.41 0.24 0.19 0.15 0.24
3.75 3.46 3.57 2.86 2.60 2.49 2.12 1.99 1.84 1.68 1.59 1.55 1.59 1.59 1.56 1.97 2.66 3.23 2.98 2.65 4.70 5.73 3.44 1.84 1.28 0.77 0.59 0.81 1.37 2.48 2.43 1.72 1.81 2.19 2.56 2.80 2.58 1.91 1.49 1.12 0.95 1.08 0.78 1.37 1.24 0.76 0.38 0.38 0.37 0.20 0.18 0.16 0.14 0.27
3.69 3.42 3.38 2.91 2.77 2.35 1.97 1.91 1.75 1.52 1.56 1.80 1.91 1.74 1.75 2.31 2.93 3.38 3.01 2.68 3.43 3.84 3.50 1.95 0.77 0.59 0.39 0.38 0.82 1.19 1.41 1.69 2.16 2.86 3.43 3.43 2.61 1.69 1.33 0.94 0.83 0.69 1.05 1.59 1.48 0.99 0.63 0.42 0.42 0.42 0.32 0.31 0.23 0.09
3.44 3.32 3.28 2.86 3.07 2.54 2.10 1.99 1.79 1.63 1.64 1.83 2.19 1.88 2.10 2.51 3.56 4.06 3.16 2.73 2.38 2.71 3.04 1.70 0.80 0.62 0.65 0.43 0.48 0.75 1.26 1.81 2.43 3.10 3.29 2.31 1.36 1.33 1.14 1.06 0.93 0.37 0.84 1.20 1.85 1.40 1.25 0.91 0.61 0.55 0.46 0.19 0.11 0.13
3.25 3.40 3.16 2.71 2.52 2.23 2.27 2.24 1.95 1.73 1.62 1.91 2.01 1.99 2.16 2.91 4.88 6.86 8.27 4.46 2.47 2.53 2.91 2.13 1.23 0.84 0.77 0.81 0.73 0.98 1.16 1.73 2.46 2.54 2.23 1.66 0.89 1.24 1.79 1.09 0.28 0.19 0.31 0.48 0.87 1.22 1.10 0.95 0.66 0.42 0.29 0.22 0.09 0.04
2.94 2.84 2.61 2.23 2.09 1.99 2.30 2.13 1.92 1.97 2.10 2.19 1.97 2.25 2.52 3.61 5.34 5.61 4.30 2.75 1.91 2.50 3.52 2.24 1.46 1.15 1.05 1.16 1.27 1.12 1.38 1.56 1.80 2.11 1.62 0.91 0.67 1.35 2.04 1.09 0.21 0.23 0.27 0.31 0.41 0.52 0.52 0.45 0.38 0.25 0.22 0.19 0.09 0.06
2.56 2.39 2.08 1.97 2.11 2.15 1.95 1.82 1.99 2.36 2.68 2.29 2.32 2.75 3.58 5.23 5.86 3.68 1.49 1.26 2.04 2.96 2.68 2.33 1.58 1.57 1.31 1.56 1.42 1.34 1.47 1.65 1.99 2.01 1.48 0.88 1.08 1.75 1.88 0.36 0.08 0.10 0.10 0.20 0.20 0.16 0.25 0.25 0.22 0.20 0.18 0.18 0.15 0.13
2.24 1.92 1.59 1.64 2.25 2.47 2.06 1.89 2.26 2.69 3.19 3.14 3.81 5.35 7.91 7.92 6.40 3.49 2.40 2.28 3.27 4.38 3.33 1.44 1.09 1.87 1.44 1.95 1.70 1.73 1.92 2.45 1.89 1.40 0.87 1.18 1.44 1.86 0.94 0.26 0.13 0.08 0.08 0.09 0.12 0.12 0.14 0.20 0.21 0.21 0.22 0.21 0.23 0.30
1.96 1.33 1.26 1.42 1.87 2.30 2.31 2.23 2.55 3.35 3.99 4.74 5.81 7.66 8.79 5.30 3.42 3.73 5.68 5.90 5.16 3.95 2.36 1.10 0.54 1.41 1.72 1.88 2.09 2.13 1.92 2.08 2.02 0.96 0.86 1.39 1.15 0.68 0.33 0.20 0.18 0.21 0.19 0.12 0.16 0.17 0.13 0.20 0.20 0.21 0.27 0.28 0.26 0.22
1.41 1.09 1.06 1.29 1.61 1.75 1.79 1.91 2.46 3.18 4.36 5.72 5.92 6.22 5.58 3.83 3.87 4.68 4.93 3.97 2.77 1.83 1.07 0.74 0.59 1.05 1.53 2.02 2.14 2.29 2.19 1.57 1.31 1.09 1.22 1.25 0.70 0.73 0.59 0.63 0.54 0.41 0.30 0.25 0.20 0.13 0.09 0.17 0.22 0.25 0.28 0.26 0.24 0.20
1.28 0.97 1.02 1.06 1.17 1.40 1.43 1.70 2.22 2.28 2.91 3.05 3.42 4.02 4.60 4.05 3.89 3.47 2.64 1.56 0.91 0.61 0.52 0.60 0.62 0.86 1.55 2.30 2.43 2.54 2.36 1.87 1.38 1.19 1.63 0.96 0.79 0.71 0.61 0.59 0.38 0.38 0.35 0.26 0.24 0.31 0.38 0.40 0.31 0.24 0.22 0.22 0.23 0.28
1.20 0.98 0.95 1.07 1.09 1.14 1.11 1.45 1.50 1.57 2.07 2.57 3.06 4.32 4.57 3.70 3.04 2.07 1.14 0.61 0.48 0.41 0.47 0.50 0.92 1.00 1.19 1.83 2.75 2.11 1.94 1.61 1.53 1.89 1.10 0.64 0.53 0.32 0.25 0.25 0.31 0.40 0.45 0.54 0.56 0.55 0.53 0.58 0.58 0.57 0.69 0.85 0.84 0.86
0.90 0.81 0.87 1.12 1.08 1.17 1.32 1.40 1.48 2.22 2.66 2.59 2.64 2.97 2.68 2.19 1.52 1.11 0.69 0.52 0.47 0.43 0.52 0.80 1.21 1.15 1.14 1.65 2.34 2.09 1.68 1.30 1.60 1.47 0.77 0.97 0.97 0.67 0.38 0.28 0.28 0.38 0.47 0.59 0.75 0.73 0.75 0.78 0.95 1.14 1.26 1.34 1.17 1.22
0.74 0.88 1.15 1.35 1.28 1.35 1.60 1.36 1.62 1.56 1.62 1.83 1.72 1.82 1.25 1.48 1.09 0.87 0.74 0.66 0.76 0.96 1.29 1.76 1.95 1.60 1.47 1.77 1.52 1.44 1.35 1.08 0.77 0.80 1.36 1.33 0.84 0.47 0.36 0.31 0.37 0.49 0.58 0.67 0.70 0.68 0.75 0.69 0.59 0.82 0.94 0.90 0.73 0.79
1.15 1.27 1.27 1.16 1.12 1.41 1.47 1.37 1.43 1.19 1.15 0.94 0.98 1.09 1.00 1.20 1.14 1.00 1.06 1.04 0.96 1.49 1.69 2.18 2.11 1.94 1.78 1.30 1.20 0.89 0.72 0.78 1.12 1.08 0.98 0.66 0.52 0.48 0.50 0.57 0.71 0.77 0.73 0.74 0.71 0.61 0.59 0.56 0.47 0.58 0.64 0.59 0.62 0.50
1.22 1.05 1.09 1.02 1.10 1.21 1.12 1.22 1.10 0.88 0.75 0.64 0.87 1.00 1.02 1.15 1.19 1.13 1.08 0.95 0.94 1.38 1.34 1.27 1.20 1.30 1.32 1.04 0.93 0.90 1.17 1.29 1.23 0.97 0.65 0.51 0.53 0.63 0.75 0.84 0.97 0.96 0.75 0.64 0.60 0.57 0.62 0.59 0.46 0.36 0.46 0.64 0.49 0.47
1.42 0.94 0.91 0.84 1.00 1.35 1.35 1.01 0.67 0.43 0.44 0.69 0.86 1.13 0.93 1.19 1.17 0.98 0.97 0.95 1.28 1.27 0.99 1.11 0.69 0.61 0.71 0.77 0.95 1.29 1.20 1.03 0.78 0.77 0.87 0.88 0.80 0.87 0.91 0.94 0.99 0.84 0.71 0.74 0.67 0.67 0.66 0.62 0.51 0.58 0.54 0.55 0.42 0.43
1.11 0.99 0.93 0.77 0.66 0.72 0.87 0.65 0.34 0.43 0.72 0.74 0.82 0.76 0.68 0.83 0.88 1.00 0.93 0.89 1.17 1.19 1.09 0.93 0.82 0.71 0.86 1.05 1.11 1.04 1.02 0.79 0.84 0.96 1.03 1.09 1.03 0.97 1.02 0.98 0.93 0.89 0.78 0.83 0.72 0.66 0.67 0.63 0.58 0.54 0.50 0.45 0.44 0.44
1.34 1.22 0.96 0.75 0.41 0.34 0.32 0.31 0.18 0.22 0.48 0.57 0.64 0.45 0.39 0.58 0.46 0.33 0.39 0.53 0.79 1.23 1.22 1.02 1.12 1.33 1.33 1.31 1.19 1.09 1.11 0.88 0.70 0.68 0.94 1.14 1.17 0.91 0.95 0.82 0.80 0.78 0.66 0.68 0.64 0.59 0.51 0.46 0.48 0.44 0.39 0.36 0.37 0.37
1.17 1.24 0.88 0.78 0.46 0.36 0.30 0.28 0.27 0.18 0.23 0.39 0.36 0.19 0.30 0.16 0.11 0.11 0.12 0.21 0.79 1.20 1.36 1.44 1.40 1.47 1.47 1.39 1.12 0.90 0.90 0.76 0.77 0.62 0.76 0.96 1.05 0.73 0.78 0.83 0.71 0.63 0.56 0.60 0.57 0.57 0.46 0.46 0.42 0.36 0.42 0.44 0.40 0.42
0.69 0.76 0.79 0.54 0.49 0.29 0.20 0.08 0.15 0.18 0.18 0.20 0.21 0.19 0.29 0.27 0.21 0.18 0.18 0.41 0.85 0.99 1.09 1.14 1.12 1.02 0.93 1.03 1.11 0.94 0.96 0.67 0.59 0.55 0.61 0.61 0.71 0.74 0.80 0.85 0.65 0.66 0.61 0.61 0.49 0.45 0.39 0.33 0.31 0.30 0.33 0.40 0.39 0.45
0.77 0.84 0.83 0.57 0.43 0.24 0.17 0.08 0.08 0.09 0.12 0.15 0.16 0.18 0.22 0.35 0.33 0.21 0.28 0.33 0.69 0.93 0.80 0.66 0.73 0.71 0.73 0.93 0.67 0.67 0.78 0.61 0.60 0.64 0.67 0.63 0.62 0.65 0.60 0.63 0.57 0.50 0.46 0.45 0.42 0.43 0.42 0.35 0.31 0.33 0.33 0.37 0.45 0.44
0.53 0.75 0.72 0.55 0.36 0.31 0.16 0.18 0.10 0.09 0.10 0.10 0.13 0.13 0.18 0.18 0.10 0.13 0.28 0.45 0.72 0.52 0.42 0.56 0.47 0.47 0.45 0.45 0.51 0.62 0.76 0.53 0.49 0.52 0.57 0.39 0.34 0.41 0.34 0.36 0.37 0.41 0.46 0.42 0.35 0.38 0.38 0.43 0.44 0.41 0.40 0.42 0.45 0.44
0.43 0.38 0.36 0.33 0.19 0.13 0.09 0.10 0.11 0.08 0.08 0.05 0.07 0.11 0.12 0.07 0.11 0.16 0.26 0.57 0.47 0.44 0.45 0.39 0.30 0.32 0.42 0.53 0.58 0.55 0.43 0.31 0.30 0.33 0.41 0.30 0.31 0.34 0.29 0.29 0.30 0.34 0.33 0.32 0.32 0.38 0.43 0.44 0.44 0.39 0.39 0.40 0.42 0.42
0.32 0.19 0.15 0.15 0.14 0.09 0.06 0.09 0.11 0.12 0.09 0.10 0.16 0.14 0.09 0.14 0.14 0.28 0.40 0.58 0.49 0.47 0.50 0.49 0.40 0.27 0.28 0.28 0.30 0.29 0.26 0.21 0.18 0.24 0.28 0.22 0.24 0.31 0.29 0.26 0.31 0.34 0.24 0.36 0.43 0.44 0.38 0.33 0.35 0.34 0.36 0.39 0.43 0.43
0.18 0.15 0.08 0.08 0.19 0.27 0.24 0.16 0.18 0.19 0.19 0.23 0.24 0.16 0.22 0.22 0.27 0.42 0.46 0.43 0.39 0.42 0.34 0.30 0.23 0.20 0.21 0.22 0.17 0.15 0.14 0.10 0.14 0.22 0.26 0.21 0.20 0.24 0.31 0.42 0.43 0.47 0.30 0.33 0.40 0.42 0.41 0.40 0.40 0.38 0.41 0.45 0.44 0.46
0.09 0.09 0.15 0.18 0.25 0.27 0.36 0.33 0.30 0.29 0.35 0.29 0.30 0.27 0.29 0.28 0.45 0.50 0.47 0.45 0.35 0.26 0.18 0.16 0.16 0.16 0.18 0.22 0.22 0.18 0.19 0.16 0.16 0.22 0.23 0.25 0.22 0.25 0.28 0.29 0.28 0.22 0.22 0.28 0.30 0.31 0.34 0.40 0.45 0.44 0.45 0.43 0.45 0.41
0.13 0.11 0.12 0.14 0.16 0.15 0.22 0.30 0.38 0.36 0.32 0.29 0.33 0.31 0.27 0.35 0.60 0.55 0.51 0.36 0.30 0.24 0.23 0.21 0.30 0.21 0.20 0.27 0.22 0.15 0.18 0.23 0.30 0.34 0.40 0.51 0.43 0.39 0.25 0.21 0.20 0.20 0.21 0.23 0.23 0.28 0.30 0.35 0.36 0.37 0.46 0.48 0.47 0.51
0.11 0.07 0.10 0.09 0.09 0.16 0.31 0.22 0.28 0.20 0.11 0.13 0.13 0.16 0.20 0.45 0.65 0.52 0.47 0.37 0.35 0.38 0.41 0.33 0.32 0.25 0.25 0.21 0.29 0.25 0.28 0.25 0.30 0.39 0.45 0.45 0.41 0.37 0.24 0.20 0.18 0.20 0.18 0.19 0.20 0.24 0.22 0.23 0.25 0.27 0.30 0.36 0.45 0.52
0.14 0.15 0.18 0.15 0.21 0.32 0.30 0.17 0.19 0.16 0.17 0.17 0.17 0.18 0.30 0.45 0.48 0.35 0.34 0.47 0.34 0.30 0.28 0.28 0.28 0.28 0.26 0.28 0.31 0.33 0.42 0.32 0.30 0.33 0.36 0.39 0.33 0.26 0.22 0.19 0.19 0.17 0.16 0.16 0.18 0.23 0.24 0.25 0.30 0.33 0.31 0.32 0.36 0.35
0.21 0.29 0.30 0.26 0.38 0.34 0.31 0.39 0.32 0.32 0.27 0.26 0.26 0.20 0.32 0.30 0.29 0.37 0.32 0.35 0.39 0.37 0.37 0.35 0.37 0.41 0.42 0.46 0.42 0.40 0.38 0.33 0.27 0.25 0.24 0.25 0.24 0.21 0.17 0.14 0.16 0.18 0.19 0.17 0.18 0.21 0.21 0.25 0.31 0.31 0.33 0.30 0.29 0.28
0.25 0.26 0.31 0.35 0.34 0.36 0.39 0.42 0.37 0.34 0.32 0.29 0.33 0.35 0.37 0.33 0.37 0.48 0.36 0.39 0.61 0.62 0.51 0.49 0.53 0.51 0.50 0.43 0.35 0.35 0.32 0.28 0.22 0.19 0.18 0.16 0.13 0.11 0.10 0.13 0.14 0.15 0.16 0.18 0.22 0.20 0.19 0.17 0.19 0.19 0.18 0.18 0.19 0.16

GFSWCAN_prec_precacc_237.txt.gz
Total_Precipitation_Accumulation
3.54 3.09 3.11 2.69 2.50 2.58 1.99 1.91 1.83 1.81 1.79 2.02 2.11 1.95 1.97 2.22 2.97 3.72 3.71 2.80 5.40 5.02 2.90 1.64 1.18 1.00 0.79 1.14 1.98 2.08 2.10 2.52 2.88 3.41 3.91 3.26 2.03 1.14 0.67 0.63 0.96 0.92 1.19 1.41 1.53 2.24 1.70 0.24 0.33 0.94 1.62 0.95 0.82 0.72
3.76 3.19 3.19 2.88 2.53 2.49 2.00 1.97 1.89 1.76 1.60 1.64 1.90 1.77 1.94 2.26 3.04 3.49 3.52 2.66 3.82 5.10 3.46 1.72 1.33 0.99 0.91 1.04 1.68 2.41 2.24 1.85 1.68 2.25 2.75 2.36 2.15 1.53 0.98 0.93 0.97 1.28 0.96 1.19 1.09 1.11 0.66 0.49 0.55 0.42 0.24 0.19 0.15 0.24
3.77 3.48 3.58 2.88 2.63 2.50 2.13 1.99 1.84 1.76 1.70 1.67 1.78 1.82 1.83 2.28 2.98 3.47 3.16 2.74 4.79 5.90 3.61 1.96 1.36 0.82 0.62 0.83 1.39 2.54 2.54 1.79 1.92 2.33 2.72 3.01 2.76 2.02 1.55 1.15 0.97 1.11 0.84 1.47 1.34 0.81 0.38 0.39 0.37 0.20 0.18 0.16 0.14 0.27
3.71 3.43 3.39 2.92 2.78 2.36 1.97 1.91 1.75 1.58 1.65 1.88 2.03 1.88 1.97 2.55 3.20 3.64 3.22 2.85 3.57 4.06 3.75 2.22 0.89 0.67 0.44 0.43 0.87 1.25 1.51 1.81 2.33 3.09 3.70 3.80 2.99 1.99 1.57 1.11 0.92 0.74 1.11 1.69 1.60 1.07 0.67 0.44 0.42 0.42 0.32 0.31 0.23 0.10
3.45 3.32 3.29 2.87 3.08 2.54 2.10 1.99 1.79 1.66 1.71 1.88 2.27 1.97 2.22 2.66 3.72 4.28 3.43 2.97 2.58 2.90 3.30 1.90 0.93 0.71 0.72 0.49 0.55 0.85 1.40 2.00 2.64 3.32 3.56 2.57 1.60 1.54 1.31 1.18 0.97 0.39 0.89 1.30 1.97 1.44 1.28 0.91 0.61 0.55 0.46 0.19 0.11 0.13
3.25 3.41 3.17 2.72 2.52 2.23 2.27 2.24 1.95 1.74 1.66 1.94 2.05 2.07 2.23 2.97 4.93 6.94 8.41 4.62 2.62 2.66 3.03 2.31 1.40 0.93 0.83 0.87 0.81 1.05 1.25 1.82 2.56 2.63 2.33 1.73 0.94 1.30 1.86 1.12 0.29 0.19 0.31 0.48 0.87 1.22 1.10 0.95 0.66 0.42 0.29 0.22 0.09 0.04
2.95 2.87 2.63 2.23 2.10 1.99 2.31 2.13 1.92 1.97 2.12 2.21 2.01 2.31 2.55 3.63 5.35 5.62 4.33 2.79 1.95 2.55 3.59 2.34 1.55 1.20 1.09 1.20 1.31 1.17 1.42 1.59 1.82 2.13 1.63 0.93 0.68 1.36 2.04 1.09 0.21 0.23 0.27 0.31 0.41 0.52 0.52 0.45 0.38 0.25 0.22 0.19 0.09 0.06
2.57 2.41 2.10 1.98 2.12 2.15 1.95 1.82 1.99 2.37 2.69 2.31 2.35 2.78 3.60 5.24 5.86 3.69 1.50 1.26 2.04 2.96 2.69 2.36 1.63 1.61 1.33 1.58 1.43 1.36 1.48 1.66 1.99 2.01 1.48 0.88 1.08 1.76 1.88 0.36 0.08 0.10 0.10 0.20 0.20 0.16 0.25 0.25 0.22 0.20 0.18 0.18 0.15 0.13
2.25 1.93 1.59 1.65 2.25 2.47 2.06 1.90 2.26 2.70 3.21 3.16 3.82 5.36 7.92 7.92 6.40 3.50 2.40 2.28 3.27 4.38 3.33 1.44 1.09 1.89 1.44 1.96 1.70 1.74 1.92 2.45 1.89 1.40 0.87 1.18 1.44 1.86 0.94 0.26 0.13 0.08 0.08 0.09 0.12 0.12 0.14 0.20 0.21 0.21 0.22 0.21 0.23 0.30
1.96 1.34 1.27 1.42 1.88 2.31 2.32 2.23 2.56 3.36 4.00 4.76 5.82 7.67 8.83 5.31 3.42 3.73 5.69 5.90 5.16 3.95 2.36 1.11 0.54 1.41 1.72 1.88 2.10 2.13 1.92 2.08 2.02 0.96 0.86 1.39 1.15 0.68 0.33 0.20 0.18 0.21 0.19 0.12 0.16 0.17 0.13 0.20 0.20 0.21 0.27 0.28 0.26 0.23
1.44 1.12 1.08 1.31 1.61 1.76 1.79 1.94 2.50 3.21 4.39 5.73 5.93 6.29 5.64 3.85 3.87 4.68 4.93 3.97 2.77 1.83 1.07 0.75 0.59 1.05 1.53 2.02 2.14 2.29 2.19 1.57 1.31 1.09 1.22 1.26 0.70 0.73 0.59 0.63 0.54 0.41 0.30 0.25 0.20 0.13 0.09 0.17 0.22 0.25 0.28 0.26 0.24 0.20
1.29 1.01 1.07 1.09 1.18 1.41 1.47 1.73 2.25 2.31 2.93 3.06 3.43 4.07 4.61 4.05 3.89 3.47 2.65 1.56 0.91 0.61 0.52 0.60 0.62 0.86 1.55 2.30 2.43 2.55 2.36 1.87 1.39 1.19 1.63 0.96 0.79 0.71 0.61 0.59 0.38 0.38 0.35 0.26 0.24 0.31 0.38 0.40 0.31 0.24 0.22 0.22 0.23 0.28
1.20 0.98 0.96 1.10 1.13 1.17 1.12 1.45 1.50 1.57 2.08 2.58 3.06 4.35 4.57 3.70 3.04 2.08 1.14 0.61 0.48 0.42 0.47 0.51 0.92 1.00 1.19 1.83 2.76 2.11 1.94 1.61 1.53 1.89 1.10 0.64 0.53 0.32 0.25 0.25 0.31 0.40 0.45 0.54 0.56 0.55 0.53 0.59 0.58 0.57 0.69 0.86 0.84 0.86
0.90 0.81 0.87 1.12 1.10 1.18 1.33 1.40 1.48 2.22 2.67 2.62 2.64 2.97 2.68 2.20 1.54 1.16 0.72 0.54 0.48 0.43 0.52 0.80 1.21 1.15 1.15 1.65 2.34 2.09 1.68 1.31 1.60 1.47 0.77 0.97 0.97 0.67 0.38 0.28 0.28 0.38 0.47 0.59 0.75 0.73 0.75 0.78 0.95 1.14 1.26 1.34 1.17 1.22
0.74 0.88 1.15 1.35 1.28 1.35 1.60 1.36 1.62 1.56 1.62 1.83 1.73 1.83 1.26 1.50 1.11 0.90 0.77 0.68 0.76 0.97 1.29 1.76 1.95 1.60 1.47 1.77 1.52 1.44 1.35 1.08 0.77 0.80 1.37 1.33 0.84 0.47 0.36 0.31 0.37 0.49 0.58 0.67 0.70 0.68 0.75 0.69 0.59 0.82 0.94 0.90 0.73 0.79
1.15 1.27 1.27 1.16 1.12 1.41 1.47 1.37 1.43 1.19 1.15 0.94 0.98 1.09 1.01 1.20 1.14 1.00 1.06 1.05 0.97 1.50 1.69 2.18 2.11 1.94 1.78 1.30 1.20 0.89 0.72 0.78 1.12 1.09 0.98 0.66 0.52 0.48 0.50 0.57 0.71 0.77 0.73 0.74 0.71 0.61 0.59 0.56 0.47 0.58 0.64 0.59 0.62 0.50
1.22 1.05 1.09 1.02 1.10 1.21 1.12 1.22 1.10 0.88 0.75 0.64 0.87 1.00 1.03 1.16 1.19 1.13 1.08 0.95 0.94 1.39 1.35 1.27 1.20 1.31 1.33 1.04 0.93 0.90 1.17 1.29 1.24 0.97 0.65 0.51 0.53 0.63 0.75 0.84 0.97 0.96 0.75 0.64 0.60 0.57 0.62 0.59 0.46 0.36 0.46 0.64 0.49 0.47
1.42 0.94 0.91 0.84 1.00 1.35 1.35 1.01 0.68 0.43 0.44 0.69 0.86 1.13 0.94 1.19 1.17 0.98 0.97 0.95 1.28 1.28 0.99 1.12 0.71 0.62 0.71 0.77 0.95 1.29 1.21 1.04 0.78 0.77 0.87 0.88 0.80 0.87 0.91 0.94 0.99 0.84 0.71 0.74 0.67 0.67 0.66 0.62 0.51 0.58 0.54 0.55 0.42 0.43
1.11 0.99 0.93 0.77 0.66 0.72 0.87 0.65 0.34 0.44 0.72 0.74 0.82 0.76 0.68 0.83 0.88 1.00 0.93 0.89 1.18 1.19 1.09 0.93 0.83 0.71 0.86 1.05 1.11 1.04 1.02 0.80 0.84 0.96 1.03 1.09 1.03 0.97 1.02 0.98 0.93 0.89 0.78 0.83 0.72 0.66 0.67 0.63 0.58 0.54 0.50 0.45 0.44 0.44
1.34 1.22 0.96 0.75 0.41 0.34 0.32 0.31 0.18 0.22 0.48 0.57 0.64 0.45 0.39 0.58 0.46 0.33 0.39 0.53 0.79 1.24 1.23 1.02 1.12 1.33 1.33 1.31 1.19 1.09 1.11 0.88 0.70 0.68 0.94 1.14 1.17 0.91 0.96 0.82 0.80 0.78 0.66 0.68 0.64 0.59 0.51 0.46 0.48 0.44 0.39 0.36 0.37 0.37
1.17 1.24 0.88 0.78 0.46 0.36 0.30 0.28 0.27 0.18 0.23 0.39 0.36 0.19 0.30 0.16 0.11 0.11 0.12 0.21 0.80 1.21 1.36 1.44 1.40 1.47 1.47 1.39 1.12 0.90 0.90 0.76 0.77 0.62 0.76 0.97 1.05 0.73 0.78 0.83 0.71 0.63 0.56 0.60 0.57 0.57 0.46 0.46 0.42 0.36 0.42 0.44 0.40 0.42
0.69 0.76 0.79 0.54 0.49 0.29 0.20 0.08 0.15 0.18 0.18 0.20 0.22 0.19 0.30 0.27 0.21 0.18 0.18 0.41 0.85 0.99 1.09 1.14 1.12 1.02 0.93 1.03 1.11 0.94 0.96 0.67 0.59 0.55 0.61 0.61 0.71 0.74 0.80 0.85 0.65 0.66 0.61 0.61 0.49 0.45 0.39 0.33 0.31 0.30 0.33 0.40 0.39 0.45
0.77 0.84 0.83 0.57 0.43 0.24 0.17 0.08 0.08 0.09 0.13 0.15 0.16 0.18 0.23 0.35 0.33 0.21 0.29 0.33 0.69 0.93 0.80 0.66 0.73 0.71 0.73 0.93 0.67 0.67 0.78 0.61 0.60 0.64 0.67 0.63 0.62 0.65 0.60 0.63 0.57 0.50 0.46 0.46 0.42 0.43 0.42 0.35 0.31 0.33 0.33 0.37 0.45 0.44
0.53 0.75 0.72 0.55 0.36 0.31 0.16 0.18 0.10 0.09 0.10 0.10 0.14 0.13 0.18 0.19 0.10 0.14 0.28 0.45 0.72 0.53 0.42 0.56 0.47 0.47 0.46 0.45 0.51 0.62 0.76 0.53 0.49 0.52 0.57 0.39 0.34 0.41 0.34 0.36 0.37 0.41 0.46 0.42 0.35 0.38 0.38 0.43 0.44 0.41 0.40 0.42 0.45 0.44
0.44 0.38 0.36 0.33 0.19 0.14 0.09 0.10 0.11 0.08 0.08 0.05 0.07 0.11 0.13 0.07 0.12 0.16 0.26 0.57 0.47 0.44 0.45 0.39 0.30 0.32 0.42 0.53 0.58 0.55 0.43 0.31 0.30 0.33 0.41 0.30 0.31 0.34 0.29 0.29 0.30 0.34 0.33 0.32 0.32 0.38 0.43 0.44 0.44 0.39 0.39 0.41 0.42 0.42
0.33 0.19 0.15 0.15 0.14 0.09 0.06 0.09 0.11 0.12 0.09 0.10 0.16 0.14 0.10 0.14 0.14 0.28 0.40 0.59 0.49 0.47 0.50 0.49 0.41 0.27 0.28 0.28 0.30 0.29 0.26 0.21 0.18 0.24 0.28 0.22 0.24 0.31 0.29 0.26 0.31 0.35 0.24 0.36 0.43 0.44 0.38 0.33 0.35 0.34 0.36 0.39 0.43 0.43
0.18 0.15 0.08 0.08 0.19 0.27 0.24 0.16 0.18 0.19 0.20 0.24 0.24 0.16 0.22 0.22 0.27 0.42 0.46 0.43 0.39 0.42 0.34 0.30 0.24 0.20 0.21 0.22 0.17 0.15 0.14 0.10 0.14 0.22 0.26 0.21 0.20 0.24 0.31 0.42 0.43 0.47 0.30 0.33 0.40 0.42 0.41 0.40 0.40 0.38 0.41 0.45 0.44 0.46
0.09 0.09 0.15 0.18 0.25 0.27 0.36 0.33 0.30 0.29 0.36 0.29 0.31 0.27 0.29 0.28 0.45 0.50 0.47 0.45 0.35 0.26 0.18 0.16 0.16 0.16 0.18 0.22 0.22 0.18 0.19 0.16 0.16 0.22 0.23 0.25 0.23 0.26 0.28 0.29 0.28 0.22 0.22 0.28 0.30 0.31 0.34 0.40 0.45 0.44 0.45 0.43 0.45 0.41
0.14 0.11 0.12 0.14 0.16 0.15 0.22 0.30 0.38 0.36 0.32 0.29 0.33 0.31 0.27 0.35 0.60 0.55 0.51 0.36 0.30 0.24 0.23 0.21 0.30 0.21 0.20 0.27 0.22 0.15 0.18 0.23 0.30 0.34 0.40 0.52 0.44 0.41 0.25 0.21 0.20 0.20 0.21 0.23 0.23 0.28 0.30 0.35 0.36 0.37 0.46 0.48 0.47 0.52
0.11 0.08 0.11 0.09 0.09 0.16 0.31 0.22 0.28 0.20 0.11 0.13 0.13 0.16 0.20 0.45 0.65 0.52 0.47 0.37 0.35 0.38 0.41 0.33 0.32 0.25 0.25 0.21 0.29 0.26 0.28 0.26 0.30 0.39 0.45 0.45 0.41 0.37 0.24 0.20 0.18 0.20 0.18 0.19 0.20 0.24 0.22 0.23 0.25 0.27 0.30 0.36 0.45 0.52
0.15 0.16 0.19 0.16 0.22 0.32 0.30 0.17 0.19 0.16 0.17 0.17 0.17 0.18 0.30 0.45 0.48 0.35 0.34 0.47 0.34 0.30 0.28 0.28 0.28 0.28 0.26 0.28 0.31 0.34 0.43 0.33 0.30 0.33 0.36 0.39 0.33 0.26 0.22 0.19 0.19 0.17 0.16 0.16 0.18 0.23 0.24 0.25 0.30 0.33 0.31 0.32 0.36 0.35
0.23 0.31 0.31 0.28 0.41 0.35 0.31 0.39 0.32 0.32 0.28 0.26 0.26 0.20 0.32 0.30 0.29 0.38 0.32 0.35 0.39 0.37 0.37 0.35 0.37 0.42 0.42 0.46 0.43 0.40 0.38 0.33 0.27 0.25 0.24 0.25 0.24 0.21 0.17 0.14 0.16 0.18 0.19 0.17 0.18 0.21 0.21 0.25 0.31 0.31 0.33 0.30 0.29 0.28
0.26 0.28 0.32 0.37 0.36 0.39 0.39 0.42 0.38 0.35 0.33 0.29 0.33 0.36 0.37 0.33 0.38 0.49 0.36 0.39 0.62 0.63 0.51 0.49 0.53 0.51 0.51 0.43 0.35 0.35 0.32 0.28 0.22 0.19 0.18 0.16 0.13 0.11 0.10 0.13 0.14 0.15 0.16 0.18 0.22 0.20 0.19 0.17 0.19 0.19 0.18 0.18 0.19 0.16

GFSWCAN_prec_precacc_243.txt.gz
Total_Precipitation_Accumulation
3.60 3.17 3.18 2.76 2.56 2.61 2.02 1.94 1.88 1.97 2.05 2.33 2.44 2.31 2.23 2.32 3.05 4.00 4.18 2.98 5.57 5.23 3.10 1.72 1.20 1.01 0.82 1.17 2.00 2.08 2.11 2.57 2.92 3.47 3.97 3.30 2.03 1.14 0.67 0.63 0.96 0.92 1.19 1.41 1.53 2.24 1.70 0.24 0.33 0.94 1.62 0.95 0.82 0.72
3.83 3.25 3.25 2.93 2.57 2.51 2.02 1.99 1.96 1.94 1.90 2.00 2.37 2.27 2.33 2.44 3.16 3.69 3.94 2.92 4.03 5.32 3.74 1.92 1.40 1.03 0.93 1.06 1.68 2.41 2.24 1.87 1.72 2.30 2.80 2.39 2.16 1.54 0.98 0.93 0.97 1.28 0.96 1.19 1.09 1.11 0.66 0.49 0.56 0.43 0.25 0.19 0.16 0.24
3.80 3.52 3.63 2.91 2.66 2.52 2.14 2.00 1.88 1.98 2.04 2.04 2.41 2.51 2.24 2.56 3.15 3.66 3.51 3.01 5.16 6.32 3.94 2.32 1.59 0.88 0.65 0.83 1.39 2.55 2.57 1.80 1.93 2.35 2.78 3.08 2.81 2.04 1.56 1.15 0.97 1.11 0.84 1.48 1.36 0.81 0.38 0.39 0.38 0.21 0.19 0.17 0.15 0.28
3.73 3.47 3.41 2.94 2.79 2.37 1.97 1.91 1.79 1.89 1.94 2.33 2.81 2.85 2.51 2.89 3.41 3.78 3.53 3.15 3.87 4.45 4.14 2.69 1.30 0.85 0.50 0.47 0.89 1.26 1.52 1.83 2.36 3.14 3.80 4.04 3.16 2.03 1.58 1.11 0.93 0.75 1.13 1.72 1.64 1.09 0.70 0.47 0.47 0.52 0.42 0.39 0.29 0.14
3.48 3.36 3.31 2.89 3.09 2.54 2.10 2.00 1.93 1.88 1.94 2.36 3.03 2.80 2.68 2.92 3.97 4.50 3.71 3.35 2.88 3.11 3.63 2.35 1.37 1.06 0.83 0.56 0.64 0.91 1.49 2.09 2.78 3.56 3.97 3.04 1.84 1.63 1.36 1.21 0.99 0.42 0.98 1.44 2.10 1.53 1.39 1.02 0.71 0.65 0.53 0.24 0.14 0.15
3.28 3.46 3.19 2.74 2.53 2.23 2.27 2.26 2.07 1.86 1.89 2.35 2.61 2.73 2.63 3.26 5.24 7.25 8.84 5.16 3.03 2.87 3.24 2.62 1.79 1.31 1.07 0.98 0.93 1.23 1.44 2.07 2.84 3.01 2.79 2.09 1.19 1.46 2.02 1.20 0.30 0.21 0.36 0.55 0.94 1.30 1.19 1.02 0.72 0.47 0.34 0.25 0.12 0.06
2.97 2.91 2.65 2.25 2.10 1.99 2.31 2.15 1.97 2.04 2.31 2.50 2.43 2.81 2.91 3.88 5.60 5.91 4.80 3.38 2.45 2.90 3.87 2.61 1.81 1.49 1.42 1.38 1.47 1.39 1.70 1.89 2.17 2.51 1.95 1.14 0.85 1.49 2.20 1.16 0.22 0.23 0.27 0.32 0.41 0.52 0.52 0.45 0.38 0.25 0.22 0.19 0.09 0.06
2.59 2.42 2.11 1.99 2.12 2.15 1.96 1.83 2.01 2.40 2.76 2.45 2.61 3.15 3.89 5.47 6.12 3.98 1.79 1.53 2.32 3.32 3.06 2.62 1.92 1.88 1.53 1.74 1.61 1.51 1.68 1.95 2.28 2.27 1.69 1.05 1.23 1.85 1.93 0.36 0.08 0.10 0.10 0.20 0.20 0.16 0.25 0.25 0.22 0.20 0.18 0.18 0.15 0.13
2.27 1.94 1.60 1.65 2.25 2.47 2.07 1.91 2.28 2.70 3.22 3.17 3.89 5.53 8.10 8.12 6.64 3.71 2.54 2.42 3.42 4.57 3.57 1.60 1.20 2.02 1.53 2.04 1.78 1.79 1.95 2.55 2.05 1.52 0.95 1.24 1.51 1.88 0.94 0.26 0.13 0.08 0.08 0.09 0.12 0.12 0.14 0.20 0.21 0.21 0.22 0.21 0.23 0.30
1.98 1.35 1.29 1.43 1.88 2.32 2.33 2.24 2.56 3.37 4.00 4.76 5.82 7.71 8.96 5.48 3.54 3.78 5.71 5.91 5.20 4.01 2.41 1.18 0.57 1.46 1.75 1.90 2.12 2.14 1.93 2.10 2.04 0.99 0.90 1.42 1.18 0.69 0.33 0.20 0.18 0.21 0.19 0.12 0.16 0.17 0.13 0.20 0.20 0.21 0.27 0.28 0.26 0.23
1.52 1.14 1.10 1.34 1.64 1.78 1.82 1.95 2.50 3.22 4.39 5.73 5.93 6.32 5.67 3.86 3.87 4.68 4.93 3.98 2.78 1.88 1.14 0.82 0.61 1.07 1.54 2.03 2.15 2.29 2.19 1.57 1.31 1.09 1.22 1.26 0.70 0.73 0.59 0.63 0.54 0.41 0.30 0.25 0.20 0.13 0.09 0.17 0.22 0.25 0.28 0.26 0.24 0.21
1.32 1.05 1.10 1.13 1.25 1.49 1.53 1.78 2.27 2.33 2.93 3.06 3.44 4.09 4.61 4.05 3.89 3.47 2.65 1.57 0.92 0.64 0.55 0.63 0.65 0.86 1.55 2.30 2.43 2.55 2.36 1.87 1.39 1.19 1.63 0.96 0.79 0.71 0.61 0.59 0.38 0.38 0.35 0.26 0.24 0.31 0.38 0.40 0.31 0.24 0.22 0.22 0.23 0.28
1.20 0.99 0.97 1.12 1.18 1.22 1.15 1.49 1.52 1.57 2.08 2.58 3.06 4.35 4.57 3.70 3.04 2.08 1.14 0.61 0.49 0.42 0.47 0.51 0.93 1.01 1.19 1.83 2.76 2.11 1.94 1.61 1.53 1.89 1.10 0.64 0.53 0.32 0.25 0.25 0.31 0.40 0.45 0.54 0.56 0.55 0.53 0.59 0.58 0.57 0.69 0.86 0.84 0.86
0.90 0.81 0.87 1.13 1.11 1.18 1.33 1.41 1.48 2.22 2.67 2.62 2.64 2.97 2.68 2.20 1.55 1.16 0.72 0.54 0.48 0.43 0.52 0.80 1.21 1.15 1.15 1.65 2.34 2.09 1.68 1.31 1.60 1.47 0.77 0.97 0.97 0.67 0.38 0.28 0.28 0.38 0.47 0.59 0.75 0.73 0.76 0.78 0.96 1.14 1.27 1.34 1.17 1.22
0.74 0.88 1.15 1.35 1.28 1.35 1.60 1.36 1.62 1.56 1.62 1.83 1.73 1.83 1.28 1.53 1.12 0.91 0.80 0.70 0.77 0.98 1.30 1.76 1.95 1.60 1.47 1.77 1.52 1.44 1.35 1.08 0.77 0.80 1.37 1.33 0.84 0.47 0.36 0.31 0.37 0.49 0.58 0.67 0.70 0.68 0.75 0.69 0.59 0.83 0.94 0.90 0.73 0.79
1.15 1.27 1.27 1.16 1.12 1.41 1.47 1.37 1.43 1.19 1.15 0.94 0.98 1.09 1.01 1.20 1.14 1.00 1.07 1.07 1.01 1.52 1.69 2.18 2.11 1.94 1.78 1.30 1.20 0.89 0.72 0.78 1.12 1.09 0.98 0.66 0.52 0.48 0.50 0.57 0.71 0.77 0.73 0.74 0.71 0.61 0.59 0.56 0.47 0.58 0.64 0.59 0.62 0.50
1.22 1.05 1.09 1.02 1.10 1.21 1.12 1.22 1.10 0.88 0.75 0.64 0.87 1.00 1.03 1.16 1.19 1.13 1.08 0.95 0.95 1.39 1.35 1.27 1.20 1.31 1.33 1.04 0.93 0.90 1.17 1.29 1.24 0.97 0.65 0.51 0.53 0.63 0.75 0.84 0.97 0.96 0.75 0.64 0.60 0.57 0.62 0.59 0.46 0.36 0.46 0.64 0.49 0.47
1.42 0.94 0.91 0.84 1.00 1.35 1.35 1.01 0.68 0.43 0.44 0.69 0.86 1.13 0.94 1.19 1.17 0.98 0.97 0.95 1.28 1.28 0.99 1.12 0.71 0.62 0.71 0.77 0.95 1.29 1.21 1.04 0.78 0.77 0.87 0.88 0.80 0.87 0.91 0.94 0.99 0.84 0.71 0.74 0.67 0.67 0.66 0.62 0.51 0.58 0.54 0.55 0.42 0.43
1.11 0.99 0.93 0.77 0.66 0.72 0.87 0.65 0.34 0.44 0.72 0.74 0.82 0.76 0.68 0.83 0.88 1.00 0.93 0.89 1.18 1.19 1.09 0.93 0.83 0.71 0.86 1.05 1.11 1.04 1.02 0.80 0.84 0.96 1.03 1.09 1.03 0.97 1.02 0.98 0.93 0.89 0.78 0.83 0.72 0.66 0.67 0.63 0.58 0.54 0.50 0.45 0.44 0.44
1.34 1.22 0.96 0.75 0.41 0.34 0.32 0.31 0.18 0.22 0.48 0.57 0.64 0.45 0.39 0.58 0.46 0.33 0.39 0.53 0.79 1.24 1.23 1.02 1.12 1.33 1.33 1.31 1.19 1.09 1.11 0.88 0.70 0.68 0.94 1.14 1.17 0.91 0.96 0.82 0.80 0.78 0.66 0.68 0.64 0.59 0.51 0.46 0.48 0.44 0.39 0.36 0.37 0.37
1.17 1.24 0.88 0.78 0.46 0.36 0.30 0.28 0.27 0.18 0.23 0.39 0.36 0.19 0.30 0.16 0.11 0.11 0.12 0.21 0.80 1.21 1.36 1.44 1.40 1.47 1.47 1.39 1.12 0.90 0.90 0.76 0.77 0.62 0.76 0.97 1.05 0.73 0.78 0.83 0.71 0.63 0.56 0.60 0.57 0.57 0.46 0.46 0.42 0.36 0.42 0.44 0.40 0.42
0.69 0.76 0.79 0.54 0.49 0.29 0.20 0.08 0.15 0.18 0.18 0.20 0.22 0.19 0.30 0.27 0.21 0.18 0.18 0.41 0.85 0.99 1.09 1.14 1.12 1.02 0.93 1.03 1.11 0.94 0.96 0.67 0.59 0.55 0.61 0.61 0.71 0.74 0.80 0.85 0.65 0.66 0.61 0.61 0.49 0.45 0.39 0.33 0.31 0.30 0.33 0.40 0.39 0.45
0.77 0.84 0.83 0.57 0.43 0.24 0.17 0.08 0.08 0.09 0.13 0.15 0.16 0.18 0.23 0.35 0.33 0.21 0.29 0.33 0.69 0.93 0.80 0.66 0.73 0.71 0.73 0.93 0.67 0.67 0.78 0.61 0.60 0.64 0.67 0.63 0.62 0.65 0.60 0.63 0.57 0.50 0.46 0.46 0.42 0.43 0.42 0.35 0.31 0.33 0.33 0.37 0.45 0.45
0.53 0.75 0.72 0.55 0.36 0.31 0.16 0.18 0.10 0.09 0.10 0.10 0.14 0.13 0.18 0.19 0.11 0.15 0.29 0.45 0.72 0.53 0.42 0.56 0.47 0.47 0.46 0.45 0.51 0.62 0.76 0.53 0.49 0.52 0.57 0.39 0.34 0.41 0.34 0.36 0.37 0.41 0.46 0.42 0.35 0.38 0.38 0.43 0.44 0.41 0.40 0.42 0.46 0.45
0.44 0.38 0.36 0.33 0.19 0.14 0.09 0.10 0.11 0.08 0.08 0.05 0.07 0.11 0.13 0.07 0.12 0.16 0.26 0.57 0.47 0.44 0.45 0.39 0.30 0.32 0.43 0.53 0.59 0.55 0.43 0.31 0.30 0.33 0.41 0.30 0.31 0.34 0.29 0.29 0.30 0.34 0.33 0.32 0.32 0.38 0.43 0.44 0.44 0.39 0.39 0.41 0.42 0.42
0.33 0.19 0.15 0.15 0.14 0.09 0.06 0.09 0.11 0.12 0.09 0.10 0.16 0.14 0.10 0.14 0.14 0.28 0.40 0.59 0.49 0.47 0.50 0.49 0.41 0.27 0.28 0.28 0.30 0.29 0.26 0.21 0.18 0.24 0.28 0.22 0.24 0.31 0.29 0.26 0.32 0.36 0.25 0.36 0.43 0.44 0.38 0.33 0.35 0.34 0.36 0.39 0.43 0.43
0.19 0.15 0.08 0.08 0.19 0.27 0.24 0.16 0.18 0.19 0.20 0.24 0.24 0.16 0.22 0.22 0.27 0.42 0.46 0.43 0.39 0.42 0.34 0.30 0.24 0.20 0.22 0.22 0.17 0.15 0.14 0.10 0.14 0.22 0.26 0.21 0.20 0.24 0.31 0.42 0.43 0.47 0.30 0.33 0.40 0.42 0.41 0.40 0.40 0.38 0.41 0.45 0.44 0.46
0.09 0.09 0.15 0.18 0.25 0.27 0.36 0.33 0.30 0.29 0.36 0.30 0.31 0.27 0.29 0.28 0.45 0.50 0.47 0.45 0.35 0.26 0.18 0.16 0.16 0.16 0.18 0.22 0.22 0.18 0.19 0.16 0.16 0.22 0.23 0.26 0.23 0.26 0.28 0.29 0.28 0.22 0.22 0.28 0.30 0.31 0.34 0.40 0.45 0.44 0.45 0.43 0.45 0.42
0.14 0.11 0.12 0.14 0.16 0.15 0.22 0.30 0.38 0.36 0.32 0.29 0.33 0.31 0.27 0.35 0.60 0.55 0.51 0.36 0.30 0.24 0.23 0.21 0.30 0.21 0.20 0.27 0.22 0.15 0.18 0.23 0.30 0.35 0.41 0.54 0.46 0.43 0.26 0.21 0.20 0.20 0.21 0.23 0.23 0.28 0.30 0.35 0.36 0.37 0.46 0.48 0.47 0.52
0.11 0.08 0.11 0.09 0.09 0.16 0.31 0.22 0.28 0.20 0.11 0.13 0.13 0.16 0.20 0.45 0.65 0.52 0.47 0.37 0.35 0.38 0.41 0.33 0.32 0.25 0.25 0.22 0.30 0.27 0.29 0.26 0.30 0.39 0.45 0.45 0.41 0.37 0.24 0.20 0.18 0.20 0.18 0.19 0.20 0.24 0.22 0.23 0.25 0.27 0.30 0.36 0.45 0.52
0.15 0.16 0.19 0.16 0.22 0.32 0.30 0.17 0.19 0.16 0.17 0.17 0.17 0.18 0.30 0.45 0.48 0.35 0.34 0.47 0.34 0.30 0.28 0.28 0.28 0.28 0.27 0.29 0.33 0.36 0.46 0.36 0.31 0.33 0.36 0.39 0.33 0.26 0.22 0.19 0.19 0.17 0.16 0.16 0.18 0.23 0.24 0.25 0.30 0.33 0.31 0.33 0.36 0.35
0.23 0.31 0.31 0.28 0.41 0.35 0.31 0.39 0.32 0.32 0.28 0.26 0.26 0.20 0.32 0.30 0.29 0.38 0.32 0.35 0.39 0.37 0.37 0.35 0.37 0.42 0.42 0.47 0.45 0.43 0.39 0.34 0.27 0.25 0.24 0.25 0.24 0.21 0.17 0.14 0.16 0.18 0.19 0.17 0.18 0.21 0.21 0.25 0.31 0.31 0.33 0.30 0.29 0.28
0.26 0.28 0.32 0.38 0.40 0.42 0.40 0.42 0.38 0.35 0.33 0.29 0.33 0.36 0.37 0.33 0.38 0.50 0.37 0.40 0.62 0.63 0.51 0.49 0.53 0.51 0.51 0.43 0.36 0.37 0.35 0.30 0.23 0.19 0.18 0.16 0.13 0.11 0.10 0.13 0.14 0.15 0.16 0.18 0.22 0.20 0.19 0.17 0.19 0.19 0.18 0.18 0.19 0.16

GFSWCAN_prec_precacc_246.txt.gz
Total_Precipitation_Accumulation
3.61 3.20 3.22 2.79 2.58 2.63 2.04 1.96 1.90 1.99 2.08 2.36 2.49 2.35 2.26 2.35 3.08 4.14 4.58 3.28 5.62 5.26 3.11 1.72 1.20 1.03 0.83 1.21 2.13 2.20 2.16 2.61 3.05 3.66 4.16 3.37 2.04 1.14 0.67 0.63 0.96 0.92 1.19 1.41 1.53 2.24 1.70 0.24 0.33 0.94 1.62 0.95 0.82 0.72
3.86 3.28 3.28 2.96 2.60 2.53 2.04 2.01 1.98 1.98 1.94 2.04 2.42 2.32 2.37 2.47 3.18 3.73 4.10 3.28 4.31 5.35 3.75 1.93 1.40 1.04 0.97 1.10 1.75 2.50 2.44 1.92 1.82 2.43 2.84 2.39 2.16 1.54 0.98 0.93 0.97 1.28 0.96 1.19 1.09 1.11 0.66 0.49 0.56 0.43 0.25 0.19 0.16 0.24
3.84 3.55 3.67 2.94 2.67 2.53 2.15 2.01 1.89 2.00 2.07 2.07 2.44 2.56 2.31 2.64 3.20 3.72 3.60 3.10 5.42 6.64 4.10 2.34 1.61 0.88 0.65 0.85 1.45 2.68 2.75 1.93 1.94 2.36 2.78 3.08 2.81 2.04 1.56 1.15 0.97 1.11 0.84 1.48 1.36 0.81 0.38 0.39 0.38 0.21 0.19 0.17 0.15 0.28
3.75 3.48 3.43 2.95 2.80 2.37 1.97 1.91 1.79 1.90 1.96 2.38 2.90 2.98 2.66 3.05 3.56 3.91 3.77 3.30 3.93 4.63 4.33 2.74 1.30 0.86 0.52 0.48 0.91 1.34 1.59 1.92 2.41 3.14 3.80 4.05 3.16 2.03 1.58 1.11 0.93 0.75 1.13 1.72 1.64 1.09 0.70 0.47 0.47 0.52 0.42 0.39 0.29 0.14
3.48 3.36 3.32 2.90 3.09 2.54 2.10 2.01 1.98 1.94 1.99 2.45 3.17 2.98 2.87 3.09 4.12 4.67 3.98 3.59 2.90 3.19 3.71 2.36 1.38 1.09 0.84 0.57 0.66 0.93 1.51 2.12 2.84 3.61 4.03 3.07 1.84 1.63 1.36 1.21 0.99 0.42 0.98 1.44 2.10 1.53 1.39 1.02 0.71 0.65 0.53 0.24 0.14 0.15
3.29 3.46 3.19 2.74 2.53 2.23 2.28 2.28 2.11 1.91 2.01 2.56 2.90 2.92 2.68 3.33 5.43 7.53 9.24 5.50 3.10 2.89 3.37 2.67 1.89 1.43 1.12 0.98 0.94 1.25 1.45 2.09 2.92 3.13 2.90 2.15 1.20 1.46 2.02 1.20 0.30 0.21 0.36 0.55 0.95 1.30 1.19 1.02 0.72 0.47 0.34 0.25 0.12 0.06
2.98 2.91 2.66 2.25 2.10 2.00 2.31 2.15 2.01 2.14 2.47 2.78 2.74 3.04 3.07 4.10 6.01 6.34 4.96 3.52 2.50 2.95 4.05 2.81 1.95 1.64 1.53 1.43 1.51 1.48 1.79 1.96 2.26 2.63 2.08 1.21 0.87 1.51 2.22 1.16 0.22 0.23 0.27 0.32 0.42 0.52 0.53 0.46 0.38 0.25 0.22 0.19 0.09 0.06
2.60 2.43 2.12 1.99 2.12 2.15 1.96 1.83 2.03 2.51 2.93 2.74 2.91 3.48 4.29 5.77 6.41 4.12 1.82 1.53 2.34 3.40 3.24 2.90 2.03 2.05 1.74 1.93 1.74 1.60 1.82 2.18 2.51 2.42 1.79 1.10 1.29 1.92 2.00 0.37 0.08 0.10 0.10 0.21 0.20 0.16 0.25 0.26 0.22 0.20 0.18 0.18 0.15 0.13
2.27 1.94 1.60 1.65 2.25 2.47 2.07 1.91 2.28 2.72 3.29 3.34 4.09 5.70 8.20 8.23 6.84 3.98 2.74 2.50 3.50 4.74 3.84 1.79 1.30 2.14 1.75 2.26 1.96 1.96 2.07 2.73 2.27 1.73 1.12 1.32 1.60 1.96 0.97 0.26 0.14 0.09 0.09 0.10 0.12 0.12 0.14 0.20 0.21 0.21 0.22 0.21 0.23 0.30
1.99 1.35 1.29 1.43 1.88 2.32 2.34 2.24 2.56 3.37 4.02 4.82 5.93 7.87 9.15 5.69 3.73 3.94 5.85 6.09 5.49 4.31 2.71 1.38 0.67 1.55 1.91 2.10 2.23 2.34 2.10 2.24 2.16 1.12 1.05 1.54 1.25 0.72 0.33 0.20 0.19 0.21 0.19 0.12 0.16 0.17 0.13 0.20 0.20 0.21 0.27 0.28 0.26 0.23
1.53 1.14 1.10 1.34 1.64 1.79 1.82 1.95 2.50 3.22 4.40 5.76 6.00 6.41 5.75 3.91 3.93 4.76 5.04 4.13 2.97 2.06 1.29 1.02 0.81 1.23 1.65 2.20 2.25 2.35 2.31 1.71 1.40 1.16 1.27 1.31 0.76 0.77 0.61 0.64 0.54 0.41 0.30 0.25 0.20 0.13 0.09 0.17 0.22 0.25 0.28 0.26 0.24 0.21
1.32 1.05 1.10 1.13 1.25 1.49 1.53 1.78 2.27 2.33 2.93 3.06 3.44 4.09 4.62 4.06 3.91 3.51 2.70 1.64 0.98 0.70 0.60 0.70 0.76 0.93 1.60 2.35 2.52 2.60 2.40 1.92 1.45 1.22 1.65 0.98 0.80 0.71 0.62 0.60 0.38 0.38 0.35 0.26 0.24 0.31 0.38 0.40 0.31 0.24 0.22 0.23 0.23 0.28
1.20 0.99 0.97 1.12 1.18 1.22 1.15 1.49 1.52 1.57 2.08 2.58 3.06 4.35 4.57 3.70 3.04 2.10 1.16 0.63 0.53 0.45 0.50 0.53 0.96 1.02 1.19 1.83 2.76 2.11 1.94 1.61 1.54 1.90 1.10 0.64 0.53 0.32 0.25 0.25 0.31 0.40 0.45 0.54 0.56 0.55 0.53 0.59 0.58 0.57 0.69 0.86 0.84 0.86
0.90 0.81 0.87 1.13 1.11 1.18 1.33 1.41 1.48 2.22 2.67 2.62 2.64 2.97 2.69 2.21 1.56 1.18 0.73 0.55 0.50 0.45 0.54 0.80 1.21 1.15 1.15 1.65 2.34 2.09 1.68 1.31 1.60 1.47 0.77 0.97 0.97 0.67 0.38 0.28 0.28 0.38 0.47 0.59 0.75 0.73 0.76 0.78 0.96 1.14 1.27 1.34 1.17 1.22
0.74 0.88 1.15 1.35 1.28 1.35 1.60 1.36 1.62 1.56 1.62 1.83 1.73 1.83 1.30 1.55 1.13 0.91 0.80 0.70 0.78 0.98 1.30 1.76 1.95 1.60 1.47 1.77 1.52 1.44 1.35 1.08 0.77 0.80 1.37 1.33 0.84 0.47 0.36 0.31 0.37 0.49 0.58 0.67 0.70 0.68 0.75 0.69 0.59 0.83 0.94 0.90 0.73 0.79
1.15 1.27 1.27 1.16 1.12 1.41 1.47 1.37 1.43 1.19 1.15 0.94 0.98 1.09 1.01 1.20 1.14 1.00 1.07 1.07 1.01 1.52 1.69 2.18 2.11 1.94 1.78 1.30 1.20 0.89 0.72 0.78 1.12 1.09 0.98 0.66 0.52 0.48 0.50 0.57 0.71 0.77 0.73 0.74 0.71 0.61 0.59 0.56 0.47 0.58 0.64 0.59 0.62 0.50
1.22 1.05 1.09 1.02 1.10 1.21 1.12 1.22 1.10 0.88 0.75 0.64 0.87 1.00 1.03 1.16 1.19 1.13 1.08 0.95 0.95 1.39 1.35 1.27 1.20 1.31 1.33 1.04 0.93 0.90 1.17 1.29 1.24 0.97 0.65 0.51 0.53 0.63 0.75 0.84 0.97 0.96 0.75 0.64 0.60 0.57 0.62 0.59 0.46 0.36 0.46 0.64 0.49 0.47
1.42 0.94 0.91 0.84 1.00 1.35 1.35 1.01 0.68 0.43 0.44 0.69 0.86 1.13 0.94 1.19 1.17 0.98 0.97 0.95 1.28 1.28 0.99 1.12 0.71 0.62 0.71 0.77 0.95 1.29 1.21 1.04 0.78 0.77 0.87 0.88 0.80 0.87 0.91 0.94 0.99 0.84 0.71 0.74 0.67 0.67 0.66 0.62 0.51 0.58 0.54 0.55 0.42 0.43
1.11 0.99 0.93 0.77 0.66 0.72 0.87 0.65 0.34 0.44 0.72 0.74 0.82 0.76 0.68 0.83 0.88 1.00 0.93 0.89 1.18 1.19 1.09 0.93 0.83 0.71 0.86 1.05 1.11 1.04 1.02 0.80 0.84 0.96 1.03 1.09 1.03 0.97 1.02 0.98 0.93 0.89 0.78 0.83 0.72 0.66 0.67 0.63 0.58 0.54 0.50 0.45 0.44 0.44
1.34 1.22 0.96 0.75 0.41 0.34 0.32 0.31 0.18 0.22 0.48 0.57 0.64 0.45 0.39 0.58 0.46 0.33 0.39 0.53 0.79 1.24 1.23 1.02 1.12 1.33 1.33 1.31 1.19 1.09 1.11 0.88 0.70 0.68 0.94 1.14 1.17 0.91 0.96 0.82 0.80 0.78 0.66 0.68 0.64 0.59 0.51 0.46 0.48 0.44 0.39 0.36 0.37 0.38
1.17 1.24 0.88 0.78 0.46 0.36 0.30 0.28 0.27 0.18 0.23 0.39 0.36 0.19 0.30 0.16 0.11 0.11 0.12 0.21 0.80 1.21 1.36 1.44 1.40 1.47 1.47 1.39 1.12 0.90 0.90 0.76 0.77 0.62 0.76 0.97 1.05 0.73 0.78 0.83 0.71 0.63 0.56 0.60 0.57 0.57 0.46 0.46 0.42 0.36 0.42 0.44 0.40 0.42
0.69 0.76 0.79 0.54 0.49 0.29 0.20 0.08 0.15 0.18 0.18 0.20 0.22 0.19 0.30 0.27 0.21 0.18 0.18 0.41 0.85 0.99 1.09 1.14 1.12 1.02 0.93 1.03 1.11 0.94 0.96 0.67 0.59 0.55 0.61 0.61 0.71 0.74 0.80 0.85 0.65 0.66 0.61 0.61 0.49 0.45 0.39 0.33 0.31 0.30 0.33 0.40 0.39 0.45
0.77 0.84 0.83 0.57 0.43 0.24 0.17 0.08 0.08 0.09 0.13 0.15 0.16 0.18 0.23 0.35 0.33 0.21 0.29 0.33 0.69 0.93 0.80 0.66 0.73 0.71 0.73 0.93 0.67 0.67 0.78 0.61 0.60 0.64 0.67 0.63 0.62 0.65 0.60 0.63 0.57 0.50 0.46 0.46 0.42 0.43 0.42 0.35 0.31 0.33 0.33 0.37 0.46 0.45
0.53 0.75 0.72 0.55 0.36 0.31 0.16 0.18 0.10 0.09 0.10 0.10 0.14 0.13 0.18 0.19 0.11 0.15 0.29 0.45 0.72 0.53 0.42 0.56 0.47 0.47 0.46 0.45 0.51 0.62 0.76 0.53 0.49 0.52 0.57 0.39 0.34 0.41 0.34 0.36 0.37 0.41 0.46 0.42 0.35 0.38 0.38 0.43 0.44 0.41 0.40 0.42 0.46 0.45
0.44 0.38 0.36 0.33 0.19 0.14 0.09 0.10 0.11 0.08 0.08 0.05 0.07 0.11 0.13 0.07 0.12 0.16 0.26 0.57 0.47 0.44 0.45 0.39 0.30 0.32 0.43 0.53 0.59 0.55 0.43 0.31 0.30 0.33 0.41 0.30 0.31 0.34 0.29 0.29 0.30 0.34 0.33 0.32 0.32 0.38 0.43 0.44 0.44 0.39 0.39 0.41 0.42 0.42
0.33 0.19 0.15 0.15 0.14 0.09 0.06 0.09 0.11 0.12 0.09 0.10 0.16 0.14 0.10 0.14 0.14 0.28 0.40 0.59 0.49 0.47 0.50 0.49 0.41 0.27 0.28 0.28 0.30 0.29 0.26 0.21 0.18 0.24 0.28 0.22 0.24 0.31 0.29 0.26 0.32 0.36 0.25 0.36 0.43 0.44 0.38 0.33 0.35 0.34 0.36 0.39 0.43 0.43
0.19 0.15 0.08 0.08 0.19 0.27 0.24 0.16 0.18 0.19 0.20 0.24 0.24 0.16 0.22 0.22 0.27 0.42 0.46 0.43 0.39 0.42 0.34 0.30 0.24 0.20 0.22 0.22 0.17 0.15 0.14 0.10 0.14 0.22 0.26 0.21 0.20 0.24 0.31 0.42 0.43 0.47 0.30 0.33 0.40 0.42 0.41 0.40 0.40 0.38 0.41 0.45 0.44 0.46
0.09 0.09 0.15 0.18 0.25 0.27 0.36 0.33 0.30 0.29 0.36 0.30 0.31 0.27 0.29 0.28 0.45 0.50 0.47 0.45 0.35 0.26 0.18 0.16 0.16 0.16 0.18 0.22 0.22 0.18 0.19 0.16 0.16 0.22 0.23 0.26 0.23 0.26 0.28 0.29 0.28 0.22 0.22 0.28 0.30 0.31 0.34 0.40 0.45 0.44 0.45 0.43 0.45 0.42
0.14 0.11 0.12 0.14 0.16 0.15 0.22 0.30 0.38 0.36 0.32 0.29 0.33 0.31 0.27 0.35 0.60 0.55 0.51 0.36 0.30 0.24 0.23 0.21 0.30 0.21 0.20 0.27 0.22 0.15 0.18 0.23 0.30 0.35 0.41 0.54 0.46 0.43 0.26 0.21 0.20 0.20 0.21 0.23 0.23 0.28 0.30 0.35 0.36 0.37 0.46 0.48 0.47 0.52
0.11 0.08 0.11 0.09 0.09 0.16 0.31 0.22 0.28 0.20 0.11 0.13 0.13 0.16 0.20 0.45 0.65 0.52 0.47 0.37 0.35 0.38 0.41 0.33 0.32 0.25 0.25 0.22 0.30 0.28 0.30 0.26 0.30 0.39 0.45 0.45 0.41 0.37 0.24 0.20 0.18 0.20 0.18 0.19 0.20 0.24 0.22 0.23 0.25 0.27 0.30 0.36 0.45 0.52
0.15 0.16 0.19 0.16 0.22 0.32 0.30 0.17 0.19 0.16 0.17 0.17 0.17 0.18 0.30 0.45 0.48 0.35 0.34 0.47 0.34 0.30 0.28 0.28 0.28 0.28 0.27 0.30 0.35 0.38 0.47 0.36 0.31 0.33 0.36 0.39 0.33 0.26 0.22 0.19 0.19 0.17 0.16 0.16 0.18 0.23 0.24 0.25 0.30 0.33 0.31 0.33 0.36 0.35
0.23 0.31 0.31 0.28 0.41 0.35 0.31 0.39 0.32 0.32 0.28 0.26 0.26 0.20 0.33 0.30 0.29 0.38 0.33 0.35 0.39 0.37 0.37 0.35 0.37 0.42 0.42 0.47 0.45 0.45 0.41 0.36 0.28 0.26 0.26 0.26 0.24 0.21 0.17 0.14 0.16 0.18 0.19 0.17 0.18 0.21 0.21 0.25 0.31 0.31 0.33 0.30 0.29 0.28
0.26 0.28 0.32 0.38 0.40 0.42 0.40 0.42 0.38 0.35 0.34 0.29 0.33 0.36 0.37 0.33 0.38 0.51 0.38 0.40 0.63 0.64 0.51 0.49 0.53 0.51 0.51 0.43 0.36 0.37 0.35 0.33 0.28 0.22 0.20 0.17 0.13 0.11 0.10 0.13 0.14 0.15 0.16 0.18 0.22 0.20 0.19 0.17 0.19 0.19 0.18 0.18 0.19 0.16

GFSWCAN_prec_precacc_249.txt.gz
Total_Precipitation_Accumulation
3.62 3.20 3.24 2.81 2.61 2.65 2.06 1.98 1.92 2.01 2.10 2.38 2.51 2.38 2.31 2.40 3.12 4.20 4.66 3.34 5.86 5.55 3.20 1.72 1.20 1.03 0.83 1.21 2.14 2.20 2.18 2.63 3.13 3.92 4.47 3.54 2.14 1.15 0.67 0.63 0.96 0.92 1.19 1.41 1.53 2.24 1.70 0.24 0.33 0.94 1.62 0.95 0.82 0.72
3.87 3.29 3.30 2.98 2.62 2.55 2.06 2.02 2.00 2.00 1.96 2.06 2.45 2.34 2.41 2.52 3.25 3.84 4.28 3.32 4.44 5.68 3.94 1.94 1.40 1.04 0.97 1.10 1.75 2.51 2.50 2.02 1.96 2.62 3.03 2.52 2.19 1.54 0.98 0.93 0.97 1.28 0.96 1.19 1.09 1.11 0.66 0.49 0.56 0.43 0.25 0.19 0.16 0.24
3.86 3.59 3.70 2.95 2.68 2.53 2.16 2.01 1.90 2.00 2.08 2.08 2.47 2.59 2.35 2.69 3.27 3.80 3.78 3.17 5.54 7.01 4.38 2.42 1.62 0.88 0.65 0.85 1.45 2.72 2.78 2.04 2.13 2.58 2.97 3.21 2.93 2.05 1.56 1.15 0.97 1.11 0.84 1.48 1.36 0.81 0.38 0.39 0.38 0.21 0.19 0.17 0.15 0.28
3.79 3.51 3.44 2.96 2.80 2.37 1.97 1.91 1.79 1.91 1.97 2.39 2.94 3.02 2.71 3.09 3.61 4.00 3.92 3.44 4.04 4.85 4.53 2.81 1.31 0.86 0.52 0.48 0.91 1.35 1.60 2.00 2.72 3.46 4.13 4.23 3.23 2.04 1.58 1.11 0.93 0.75 1.13 1.72 1.64 1.09 0.70 0.47 0.47 0.52 0.42 0.39 0.29 0.14
3.53 3.40 3.33 2.91 3.09 2.54 2.10 2.03 2.00 1.96 2.02 2.50 3.25 3.10 3.00 3.21 4.24 4.80 4.17 3.75 2.97 3.28 3.82 2.37 1.38 1.09 0.84 0.57 0.66 0.94 1.51 2.17 3.01 4.07 4.34 3.21 1.88 1.63 1.36 1.21 0.99 0.42 0.98 1.44 2.10 1.53 1.39 1.02 0.71 0.65 0.53 0.24 0.14 0.15
3.32 3.49 3.22 2.75 2.53 2.24 2.29 2.30 2.16 1.96 2.05 2.65 3.03 3.01 2.78 3.46 5.64 7.90 9.73 5.83 3.24 2.90 3.43 2.73 1.89 1.43 1.12 0.98 0.95 1.27 1.47 2.12 3.08 3.47 3.33 2.26 1.22 1.46 2.02 1.20 0.30 0.21 0.36 0.55 0.95 1.30 1.19 1.02 0.72 0.47 0.34 0.25 0.12 0.07
2.99 2.94 2.68 2.26 2.11 2.02 2.34 2.17 2.06 2.22 2.55 2.86 2.76 3.13 3.13 4.12 6.31 6.76 5.12 3.61 2.58 3.01 4.21 2.92 2.03 1.67 1.53 1.44 1.54 1.53 1.82 2.03 2.43 2.93 2.47 1.52 0.90 1.51 2.22 1.16 0.22 0.23 0.27 0.32 0.42 0.52 0.53 0.46 0.38 0.25 0.22 0.19 0.09 0.06
2.60 2.44 2.12 2.00 2.13 2.16 1.96 1.83 2.03 2.52 2.97 2.77 2.95 3.65 4.52 6.03 6.80 4.32 1.84 1.54 2.35 3.48 3.40 2.99 2.17 2.34 1.88 2.00 1.87 1.73 1.95 2.29 2.64 2.53 1.89 1.29 1.41 1.93 2.00 0.37 0.08 0.10 0.10 0.21 0.20 0.16 0.25 0.27 0.24 0.21 0.20 0.20 0.15 0.13
2.28 1.94 1.61 1.65 2.25 2.48 2.07 1.91 2.28 2.72 3.30 3.35 4.09 5.75 8.32 8.45 7.10 4.14 2.77 2.51 3.51 4.78 3.90 1.87 1.46 2.34 1.92 2.42 2.10 2.11 2.25 2.91 2.41 1.82 1.17 1.35 1.65 1.98 0.97 0.26 0.14 0.09 0.09 0.11 0.14 0.13 0.15 0.21 0.21 0.21 0.22 0.21 0.23 0.30
1.99 1.35 1.29 1.43 1.88 2.33 2.34 2.24 2.56 3.37 4.03 4.82 5.93 7.87 9.21 5.85 3.92 4.07 5.97 6.18 5.55 4.34 2.74 1.41 0.75 1.78 2.10 2.28 2.39 2.50 2.23 2.38 2.26 1.20 1.10 1.56 1.27 0.72 0.33 0.20 0.19 0.21 0.19 0.12 0.16 0.18 0.14 0.20 0.20 0.21 0.27 0.28 0.26 0.23
1.53 1.14 1.10 1.34 1.64 1.79 1.82 1.95 2.50 3.22 4.41 5.77 6.00 6.44 5.86 4.03 3.99 4.80 5.12 4.18 3.02 2.09 1.30 1.04 0.85 1.30 1.76 2.36 2.41 2.48 2.41 1.80 1.44 1.20 1.30 1.34 0.77 0.78 0.61 0.65 0.55 0.42 0.30 0.25 0.20 0.13 0.09 0.17 0.22 0.25 0.28 0.26 0.24 0.21
1.32 1.05 1.10 1.13 1.25 1.49 1.53 1.78 2.27 2.33 2.93 3.06 3.44 4.10 4.63 4.08 3.93 3.54 2.73 1.67 1.01 0.72 0.61 0.72 0.84 1.06 1.77 2.54 2.79 2.89 2.57 2.04 1.56 1.26 1.67 1.01 0.80 0.72 0.63 0.62 0.40 0.42 0.36 0.26 0.24 0.31 0.38 0.40 0.31 0.24 0.22 0.23 0.23 0.28
1.20 0.99 0.97 1.12 1.18 1.22 1.15 1.49 1.52 1.57 2.08 2.58 3.06 4.35 4.58 3.71 3.06 2.13 1.19 0.65 0.56 0.46 0.51 0.55 1.01 1.09 1.28 1.89 2.85 2.30 2.13 1.75 1.66 2.00 1.16 0.65 0.54 0.33 0.28 0.28 0.34 0.42 0.46 0.54 0.56 0.55 0.53 0.59 0.58 0.57 0.69 0.86 0.84 0.86
0.90 0.81 0.87 1.13 1.11 1.18 1.33 1.41 1.48 2.22 2.67 2.62 2.64 2.97 2.69 2.22 1.58 1.21 0.76 0.57 0.52 0.47 0.56 0.82 1.23 1.16 1.16 1.66 2.35 2.10 1.69 1.33 1.62 1.49 0.79 0.98 0.97 0.68 0.40 0.29 0.29 0.38 0.47 0.59 0.75 0.73 0.76 0.78 0.96 1.14 1.27 1.34 1.17 1.22
0.74 0.88 1.15 1.35 1.28 1.35 1.60 1.36 1.62 1.56 1.62 1.83 1.73 1.83 1.31 1.57 1.13 0.92 0.83 0.76 0.83 0.99 1.30 1.76 1.95 1.60 1.47 1.77 1.53 1.45 1.36 1.08 0.77 0.80 1.37 1.33 0.84 0.47 0.36 0.31 0.37 0.49 0.58 0.67 0.70 0.68 0.75 0.69 0.59 0.83 0.94 0.90 0.73 0.79
1.15 1.27 1.27 1.16 1.12 1.41 1.47 1.37 1.43 1.19 1.15 0.94 0.98 1.09 1.01 1.20 1.14 1.00 1.08 1.08 1.01 1.52 1.69 2.18 2.11 1.94 1.78 1.30 1.20 0.89 0.72 0.78 1.12 1.09 0.98 0.66 0.52 0.48 0.50 0.57 0.71 0.77 0.73 0.74 0.71 0.61 0.59 0.56 0.47 0.58 0.64 0.59 0.62 0.50
1.22 1.05 1.09 1.02 1.10 1.21 1.12 1.22 1.10 0.88 0.75 0.64 0.87 1.00 1.03 1.16 1.19 1.13 1.08 0.95 0.95 1.39 1.35 1.27 1.20 1.31 1.33 1.04 0.93 0.90 1.17 1.29 1.24 0.97 0.66 0.51 0.53 0.63 0.75 0.84 0.97 0.96 0.75 0.64 0.60 0.57 0.62 0.59 0.46 0.36 0.46 0.64 0.49 0.47
1.42 0.94 0.91 0.84 1.00 1.35 1.35 1.01 0.68 0.43 0.44 0.69 0.86 1.13 0.94 1.19 1.17 0.98 0.97 0.95 1.28 1.28 0.99 1.12 0.71 0.62 0.71 0.77 0.95 1.29 1.21 1.04 0.78 0.77 0.87 0.88 0.80 0.87 0.91 0.94 0.99 0.84 0.71 0.74 0.67 0.67 0.66 0.62 0.51 0.58 0.54 0.55 0.42 0.43
1.11 0.99 0.93 0.77 0.66 0.72 0.87 0.65 0.34 0.44 0.72 0.74 0.82 0.76 0.68 0.83 0.88 1.00 0.93 0.89 1.18 1.19 1.09 0.93 0.83 0.71 0.86 1.05 1.11 1.04 1.02 0.80 0.84 0.96 1.03 1.09 1.03 0.97 1.02 0.98 0.93 0.89 0.78 0.83 0.72 0.66 0.67 0.63 0.58 0.54 0.50 0.45 0.44 0.44
1.34 1.22 0.96 0.75 0.41 0.34 0.32 0.31 0.18 0.22 0.48 0.57 0.64 0.45 0.39 0.58 0.46 0.33 0.39 0.53 0.79 1.24 1.23 1.02 1.12 1.33 1.33 1.31 1.19 1.09 1.11 0.88 0.70 0.68 0.94 1.14 1.17 0.91 0.96 0.82 0.80 0.78 0.66 0.68 0.64 0.59 0.51 0.46 0.48 0.44 0.39 0.36 0.37 0.38
1.17 1.24 0.88 0.78 0.46 0.36 0.30 0.28 0.27 0.18 0.23 0.39 0.36 0.19 0.30 0.16 0.11 0.11 0.12 0.21 0.80 1.21 1.36 1.44 1.40 1.47 1.47 1.39 1.12 0.90 0.90 0.76 0.77 0.62 0.76 0.97 1.05 0.73 0.78 0.83 0.71 0.63 0.56 0.60 0.57 0.57 0.46 0.46 0.42 0.36 0.42 0.44 0.40 0.42
0.69 0.76 0.79 0.54 0.49 0.29 0.20 0.08 0.15 0.18 0.18 0.20 0.22 0.19 0.30 0.27 0.21 0.18 0.18 0.41 0.85 0.99 1.09 1.14 1.12 1.02 0.93 1.03 1.11 0.94 0.96 0.67 0.59 0.55 0.61 0.61 0.71 0.74 0.80 0.85 0.65 0.66 0.61 0.61 0.49 0.45 0.39 0.33 0.31 0.30 0.33 0.40 0.39 0.45
0.77 0.84 0.83 0.57 0.43 0.24 0.17 0.08 0.08 0.09 0.13 0.15 0.16 0.18 0.23 0.35 0.33 0.21 0.29 0.33 0.69 0.93 0.80 0.66 0.73 0.71 0.73 0.93 0.67 0.67 0.78 0.61 0.60 0.64 0.67 0.63 0.62 0.65 0.60 0.63 0.57 0.50 0.46 0.46 0.42 0.43 0.42 0.35 0.31 0.33 0.33 0.37 0.46 0.45
0.53 0.75 0.72 0.55 0.36 0.31 0.16 0.18 0.10 0.09 0.10 0.10 0.14 0.13 0.18 0.19 0.11 0.15 0.29 0.45 0.72 0.53 0.42 0.56 0.47 0.47 0.46 0.45 0.51 0.62 0.76 0.53 0.49 0.52 0.57 0.39 0.34 0.41 0.34 0.36 0.37 0.41 0.46 0.42 0.35 0.38 0.38 0.43 0.44 0.41 0.40 0.42 0.46 0.45
0.44 0.38 0.36 0.33 0.19 0.14 0.09 0.10 0.11 0.08 0.08 0.05 0.07 0.11 0.13 0.07 0.12 0.16 0.26 0.57 0.47 0.44 0.45 0.39 0.30 0.32 0.43 0.53 0.59 0.55 0.43 0.31 0.30 0.33 0.41 0.30 0.31 0.34 0.29 0.29 0.30 0.34 0.33 0.32 0.33 0.38 0.43 0.44 0.44 0.39 0.39 0.41 0.42 0.42
0.33 0.19 0.15 0.15 0.14 0.09 0.06 0.09 0.11 0.12 0.09 0.10 0.16 0.14 0.10 0.14 0.14 0.28 0.40 0.59 0.49 0.47 0.51 0.49 0.41 0.27 0.28 0.28 0.30 0.29 0.26 0.21 0.18 0.24 0.28 0.22 0.24 0.31 0.29 0.26 0.32 0.36 0.25 0.36 0.43 0.44 0.38 0.33 0.35 0.34 0.36 0.39 0.43 0.43
0.19 0.15 0.08 0.08 0.19 0.27 0.24 0.16 0.18 0.19 0.20 0.24 0.24 0.16 0.22 0.22 0.27 0.42 0.46 0.43 0.39 0.42 0.34 0.30 0.24 0.20 0.22 0.22 0.17 0.15 0.14 0.10 0.14 0.22 0.26 0.21 0.20 0.24 0.31 0.42 0.43 0.47 0.30 0.33 0.40 0.42 0.41 0.40 0.40 0.38 0.41 0.45 0.44 0.46
0.09 0.09 0.15 0.18 0.25 0.27 0.36 0.33 0.30 0.29 0.36 0.30 0.31 0.27 0.29 0.28 0.45 0.50 0.47 0.45 0.35 0.26 0.18 0.16 0.16 0.16 0.18 0.22 0.22 0.18 0.19 0.16 0.16 0.22 0.23 0.26 0.23 0.26 0.28 0.29 0.28 0.22 0.22 0.28 0.30 0.31 0.34 0.40 0.45 0.44 0.45 0.43 0.45 0.42
0.14 0.11 0.12 0.14 0.16 0.15 0.22 0.30 0.38 0.36 0.32 0.29 0.33 0.31 0.27 0.35 0.60 0.55 0.51 0.36 0.30 0.24 0.23 0.21 0.30 0.21 0.20 0.27 0.22 0.15 0.19 0.23 0.30 0.35 0.41 0.54 0.46 0.43 0.26 0.21 0.20 0.20 0.21 0.23 0.23 0.28 0.30 0.35 0.36 0.37 0.46 0.48 0.47 0.52
0.11 0.08 0.11 0.09 0.09 0.16 0.31 0.22 0.28 0.20 0.11 0.13 0.13 0.16 0.20 0.45 0.65 0.52 0.47 0.37 0.35 0.38 0.41 0.33 0.32 0.25 0.25 0.22 0.30 0.28 0.34 0.29 0.30 0.39 0.45 0.45 0.41 0.37 0.24 0.20 0.18 0.20 0.18 0.19 0.21 0.24 0.22 0.23 0.25 0.27 0.30 0.36 0.45 0.52
0.15 0.16 0.19 0.16 0.22 0.32 0.30 0.17 0.19 0.16 0.17 0.17 0.17 0.18 0.30 0.45 0.48 0.35 0.34 0.47 0.34 0.30 0.28 0.28 0.28 0.28 0.27 0.30 0.35 0.38 0.48 0.37 0.31 0.33 0.36 0.39 0.33 0.26 0.22 0.19 0.19 0.17 0.16 0.16 0.18 0.23 0.24 0.25 0.30 0.33 0.31 0.33 0.36 0.35
0.23 0.31 0.31 0.28 0.41 0.36 0.31 0.39 0.32 0.32 0.28 0.26 0.26 0.20 0.33 0.30 0.30 0.39 0.33 0.35 0.39 0.37 0.37 0.35 0.37 0.42 0.42 0.47 0.45 0.46 0.43 0.37 0.28 0.26 0.26 0.26 0.24 0.21 0.17 0.14 0.16 0.18 0.19 0.17 0.18 0.21 0.21 0.25 0.31 0.31 0.33 0.30 0.29 0.28
0.26 0.28 0.32 0.38 0.40 0.42 0.40 0.42 0.38 0.35 0.34 0.29 0.33 0.36 0.37 0.33 0.39 0.52 0.39 0.41 0.64 0.65 0.52 0.50 0.53 0.51 0.51 0.43 0.36 0.37 0.35 0.34 0.31 0.24 0.21 0.20 0.14 0.11 0.10 0.13 0.14 0.15 0.16 0.18 0.22 0.20 0.19 0.17 0.19 0.19 0.18 0.18 0.19 0.16

GFSWCAN_prec_precacc_252.txt.gz
Total_Precipitation_Accumulation
3.62 3.21 3.24 2.81 2.61 2.66 2.07 1.99 1.93 2.03 2.12 2.40 2.53 2.40 2.33 2.42 3.14 4.25 4.71 3.37 5.90 5.68 3.25 1.72 1.20 1.03 0.84 1.22 2.15 2.20 2.19 2.64 3.15 3.96 4.54 3.59 2.19 1.22 0.76 0.67 0.98 0.95 1.23 1.43 1.54 2.25 1.70 0.24 0.33 0.94 1.62 0.95 0.82 0.72
3.87 3.30 3.31 2.99 2.63 2.56 2.06 2.03 2.01 2.00 1.96 2.07 2.46 2.36 2.44 2.55 3.29 3.91 4.48 3.42 4.46 5.74 3.99 1.94 1.41 1.04 0.97 1.10 1.76 2.51 2.51 2.03 1.99 2.65 3.07 2.56 2.24 1.62 1.07 1.01 0.99 1.31 0.97 1.19 1.10 1.11 0.66 0.49 0.56 0.43 0.25 0.19 0.16 0.24
3.87 3.60 3.71 2.96 2.68 2.54 2.17 2.02 1.90 2.00 2.08 2.09 2.48 2.60 2.37 2.71 3.30 3.86 3.97 3.40 5.71 7.23 4.55 2.45 1.62 0.88 0.65 0.85 1.46 2.73 2.78 2.04 2.14 2.64 3.10 3.43 3.16 2.19 1.61 1.20 1.04 1.16 0.85 1.48 1.36 0.81 0.38 0.39 0.38 0.21 0.19 0.17 0.15 0.28
3.81 3.53 3.46 2.96 2.80 2.38 1.97 1.91 1.81 1.94 1.99 2.40 2.94 3.03 2.72 3.12 3.66 4.06 4.04 3.69 4.31 5.14 4.73 2.85 1.31 0.86 0.52 0.48 0.91 1.35 1.61 2.02 2.78 3.59 4.34 4.44 3.48 2.26 1.83 1.27 1.02 0.79 1.13 1.72 1.64 1.09 0.70 0.47 0.47 0.52 0.42 0.39 0.29 0.14
3.54 3.41 3.35 2.92 3.10 2.55 2.10 2.03 2.02 1.99 2.03 2.51 3.25 3.10 3.02 3.23 4.28 4.92 4.32 3.96 3.11 3.43 3.95 2.41 1.38 1.09 0.84 0.57 0.66 0.94 1.51 2.19 3.06 4.15 4.45 3.30 1.96 1.83 1.57 1.38 1.16 0.44 0.99 1.44 2.10 1.53 1.39 1.02 0.71 0.65 0.53 0.24 0.14 0.15
3.32 3.50 3.24 2.76 2.54 2.25 2.33 2.36 2.19 2.00 2.07 2.66 3.05 3.04 2.81 3.51 5.76 8.16 10.09 6.13 3.43 2.93 3.57 2.80 1.90 1.43 1.12 0.98 0.95 1.27 1.47 2.14 3.12 3.56 3.43 2.32 1.25 1.58 2.27 1.36 0.36 0.22 0.36 0.55 0.95 1.30 1.19 1.02 0.72 0.47 0.34 0.25 0.12 0.07
2.99 2.94 2.68 2.26 2.12 2.03 2.35 2.18 2.06 2.22 2.55 2.87 2.80 3.19 3.15 4.14 6.54 7.14 5.27 3.70 2.67 3.10 4.48 3.02 2.04 1.67 1.54 1.44 1.55 1.55 1.86 2.07 2.48 3.02 2.54 1.56 0.94 1.61 2.36 1.25 0.27 0.24 0.27 0.32 0.42 0.52 0.53 0.46 0.38 0.25 0.22 0.19 0.09 0.06
2.61 2.44 2.12 2.00 2.14 2.17 1.96 1.83 2.03 2.52 2.97 2.77 2.98 3.66 4.58 6.17 7.18 4.65 1.90 1.54 2.36 3.58 3.56 3.08 2.20 2.37 1.95 2.07 1.90 1.76 2.00 2.35 2.72 2.60 1.92 1.33 1.54 2.08 2.12 0.39 0.08 0.10 0.10 0.21 0.20 0.16 0.25 0.27 0.24 0.21 0.20 0.20 0.17 0.16
2.28 1.95 1.61 1.66 2.26 2.49 2.08 1.91 2.28 2.72 3.30 3.35 4.09 5.76 8.35 8.59 7.33 4.27 2.80 2.53 3.52 4.83 3.95 1.91 1.50 2.41 2.06 2.68 2.26 2.24 2.32 3.01 2.48 1.90 1.21 1.43 1.84 2.22 1.04 0.29 0.14 0.09 0.09 0.11 0.14 0.13 0.15 0.21 0.21 0.22 0.23 0.22 0.25 0.31
1.99 1.35 1.29 1.43 1.88 2.33 2.34 2.24 2.56 3.37 4.03 4.82 5.93 7.87 9.23 5.95 3.97 4.10 6.05 6.33 5.72 4.44 2.78 1.44 0.77 1.88 2.31 2.48 2.56 2.66 2.34 2.47 2.35 1.26 1.16 1.66 1.33 0.75 0.35 0.22 0.19 0.21 0.19 0.12 0.16 0.18 0.15 0.22 0.23 0.24 0.28 0.29 0.27 0.23
1.53 1.14 1.10 1.34 1.64 1.79 1.82 1.95 2.50 3.22 4.41 5.77 6.00 6.45 5.88 4.07 4.01 4.84 5.17 4.22 3.05 2.12 1.31 1.04 0.86 1.34 1.89 2.58 2.53 2.55 2.51 1.89 1.51 1.23 1.34 1.39 0.78 0.78 0.61 0.65 0.55 0.42 0.31 0.26 0.21 0.15 0.10 0.18 0.24 0.27 0.28 0.26 0.24 0.21
1.32 1.05 1.10 1.13 1.25 1.49 1.53 1.78 2.27 2.33 2.93 3.06 3.44 4.10 4.65 4.10 3.98 3.59 2.76 1.70 1.06 0.77 0.67 0.75 0.86 1.10 1.83 2.64 2.92 3.05 2.69 2.12 1.61 1.30 1.72 1.03 0.80 0.72 0.63 0.62 0.40 0.43 0.40 0.31 0.27 0.32 0.39 0.40 0.31 0.24 0.22 0.23 0.23 0.28
1.20 0.99 0.97 1.12 1.18 1.22 1.15 1.49 1.52 1.57 2.08 2.58 3.06 4.35 4.59 3.74 3.10 2.16 1.21 0.67 0.58 0.48 0.53 0.60 1.09 1.23 1.39 1.98 2.96 2.44 2.28 1.85 1.71 2.03 1.19 0.66 0.54 0.33 0.28 0.28 0.36 0.47 0.55 0.61 0.60 0.57 0.54 0.59 0.58 0.57 0.69 0.86 0.84 0.87
0.90 0.81 0.87 1.13 1.11 1.18 1.33 1.41 1.48 2.22 2.67 2.62 2.64 2.97 2.70 2.23 1.59 1.22 0.77 0.59 0.53 0.48 0.59 0.87 1.27 1.20 1.20 1.71 2.40 2.16 1.77 1.41 1.71 1.56 0.81 0.99 0.98 0.70 0.43 0.32 0.32 0.43 0.51 0.61 0.76 0.74 0.76 0.78 0.96 1.15 1.27 1.34 1.17 1.22
0.74 0.88 1.15 1.35 1.28 1.35 1.60 1.36 1.62 1.56 1.62 1.83 1.73 1.83 1.31 1.57 1.16 0.95 0.85 0.78 0.88 1.02 1.32 1.77 1.96 1.61 1.48 1.78 1.53 1.45 1.36 1.09 0.77 0.80 1.37 1.34 0.90 0.55 0.45 0.35 0.38 0.50 0.59 0.68 0.70 0.68 0.75 0.69 0.59 0.83 0.94 0.90 0.74 0.80
1.15 1.27 1.27 1.16 1.12 1.41 1.47 1.37 1.43 1.19 1.15 0.94 0.98 1.09 1.01 1.21 1.18 1.03 1.09 1.09 1.02 1.52 1.69 2.18 2.11 1.94 1.78 1.30 1.20 0.89 0.72 0.78 1.12 1.09 0.98 0.66 0.54 0.51 0.52 0.58 0.71 0.77 0.73 0.74 0.71 0.61 0.59 0.56 0.47 0.59 0.64 0.59 0.62 0.50
1.22 1.05 1.09 1.02 1.10 1.21 1.12 1.22 1.10 0.88 0.75 0.64 0.87 1.00 1.03 1.16 1.20 1.13 1.08 0.95 0.95 1.39 1.35 1.27 1.20 1.31 1.33 1.04 0.93 0.90 1.17 1.29 1.24 0.98 0.66 0.51 0.53 0.63 0.75 0.84 0.97 0.96 0.75 0.64 0.60 0.58 0.62 0.59 0.46 0.36 0.46 0.64 0.49 0.47
1.42 0.94 0.91 0.84 1.00 1.35 1.35 1.01 0.68 0.43 0.44 0.69 0.86 1.13 0.94 1.19 1.17 0.98 0.97 0.95 1.28 1.28 0.99 1.12 0.71 0.62 0.71 0.77 0.95 1.29 1.21 1.04 0.79 0.77 0.87 0.88 0.80 0.87 0.91 0.94 0.99 0.84 0.71 0.74 0.67 0.67 0.66 0.62 0.51 0.58 0.54 0.55 0.42 0.43
1.11 0.99 0.93 0.77 0.66 0.72 0.87 0.65 0.34 0.44 0.72 0.74 0.82 0.76 0.68 0.83 0.88 1.00 0.93 0.89 1.18 1.19 1.09 0.93 0.83 0.71 0.86 1.05 1.11 1.04 1.02 0.80 0.84 0.97 1.03 1.09 1.03 0.97 1.02 0.98 0.93 0.89 0.78 0.83 0.72 0.66 0.67 0.63 0.58 0.54 0.50 0.45 0.44 0.44
1.34 1.22 0.96 0.75 0.41 0.34 0.32 0.31 0.18 0.22 0.48 0.57 0.64 0.45 0.39 0.58 0.46 0.33 0.39 0.53 0.79 1.24 1.23 1.02 1.12 1.33 1.33 1.31 1.19 1.09 1.11 0.88 0.70 0.68 0.94 1.14 1.17 0.91 0.96 0.82 0.80 0.78 0.67 0.68 0.65 0.59 0.51 0.46 0.48 0.44 0.39 0.36 0.37 0.38
1.17 1.24 0.88 0.78 0.46 0.36 0.30 0.28 0.27 0.18 0.23 0.39 0.36 0.19 0.30 0.16 0.11 0.11 0.12 0.21 0.80 1.21 1.36 1.44 1.40 1.47 1.47 1.39 1.12 0.90 0.90 0.76 0.77 0.63 0.76 0.97 1.05 0.73 0.78 0.83 0.71 0.63 0.57 0.61 0.57 0.57 0.46 0.46 0.42 0.36 0.42 0.44 0.40 0.42
0.69 0.76 0.79 0.54 0.49 0.29 0.20 0.08 0.15 0.18 0.18 0.20 0.22 0.19 0.30 0.27 0.21 0.18 0.18 0.41 0.85 0.99 1.09 1.14 1.12 1.02 0.93 1.03 1.11 0.94 0.96 0.67 0.59 0.55 0.61 0.61 0.71 0.74 0.80 0.85 0.65 0.66 0.61 0.61 0.49 0.45 0.39 0.33 0.31 0.30 0.34 0.41 0.39 0.45
0.77 0.84 0.83 0.57 0.43 0.24 0.17 0.08 0.08 0.09 0.13 0.15 0.16 0.18 0.23 0.35 0.33 0.21 0.29 0.33 0.69 0.93 0.80 0.66 0.73 0.71 0.73 0.93 0.67 0.67 0.78 0.61 0.60 0.64 0.67 0.63 0.62 0.65 0.60 0.63 0.57 0.50 0.46 0.46 0.42 0.43 0.42 0.35 0.31 0.34 0.33 0.37 0.46 0.45
0.53 0.75 0.72 0.55 0.36 0.31 0.16 0.18 0.10 0.09 0.10 0.10 0.14 0.13 0.18 0.19 0.11 0.15 0.29 0.45 0.72 0.53 0.42 0.56 0.47 0.47 0.46 0.45 0.51 0.62 0.76 0.53 0.49 0.52 0.57 0.39 0.34 0.41 0.34 0.36 0.37 0.41 0.46 0.42 0.35 0.38 0.38 0.43 0.44 0.41 0.40 0.42 0.46 0.45
0.44 0.38 0.36 0.33 0.19 0.14 0.09 0.10 0.11 0.08 0.08 0.05 0.07 0.11 0.13 0.07 0.12 0.16 0.26 0.57 0.47 0.44 0.45 0.39 0.30 0.32 0.43 0.53 0.59 0.55 0.43 0.31 0.30 0.33 0.41 0.30 0.31 0.34 0.29 0.29 0.30 0.34 0.33 0.32 0.33 0.38 0.43 0.44 0.44 0.39 0.39 0.41 0.42 0.42
0.33 0.19 0.15 0.15 0.14 0.09 0.06 0.09 0.11 0.12 0.09 0.10 0.16 0.14 0.10 0.14 0.14 0.28 0.40 0.59 0.49 0.47 0.51 0.49 0.41 0.27 0.28 0.28 0.30 0.29 0.26 0.21 0.18 0.24 0.28 0.22 0.24 0.31 0.29 0.26 0.32 0.37 0.25 0.36 0.43 0.44 0.38 0.33 0.35 0.34 0.36 0.39 0.43 0.43
0.19 0.15 0.08 0.08 0.19 0.27 0.24 0.16 0.18 0.19 0.20 0.24 0.24 0.16 0.22 0.22 0.27 0.42 0.46 0.43 0.40 0.42 0.34 0.30 0.24 0.20 0.22 0.22 0.17 0.15 0.14 0.10 0.14 0.22 0.26 0.21 0.20 0.24 0.31 0.42 0.43 0.47 0.30 0.33 0.40 0.42 0.41 0.40 0.40 0.38 0.41 0.45 0.44 0.46
0.09 0.09 0.15 0.18 0.25 0.27 0.36 0.33 0.30 0.29 0.36 0.30 0.31 0.27 0.29 0.28 0.45 0.50 0.47 0.46 0.35 0.26 0.18 0.16 0.16 0.16 0.18 0.22 0.22 0.18 0.19 0.16 0.16 0.22 0.23 0.26 0.23 0.26 0.28 0.29 0.28 0.22 0.22 0.28 0.30 0.31 0.34 0.40 0.45 0.44 0.45 0.43 0.45 0.42
0.15 0.12 0.12 0.14 0.16 0.15 0.22 0.30 0.38 0.36 0.32 0.29 0.33 0.31 0.27 0.35 0.61 0.56 0.51 0.36 0.30 0.24 0.23 0.21 0.30 0.21 0.20 0.27 0.22 0.15 0.19 0.23 0.30 0.35 0.41 0.54 0.46 0.43 0.26 0.21 0.20 0.20 0.21 0.23 0.23 0.28 0.30 0.35 0.36 0.37 0.46 0.48 0.47 0.52
0.11 0.08 0.11 0.09 0.09 0.16 0.31 0.22 0.28 0.20 0.11 0.13 0.13 0.16 0.20 0.46 0.66 0.53 0.47 0.37 0.35 0.38 0.41 0.33 0.32 0.26 0.26 0.22 0.30 0.28 0.34 0.29 0.30 0.39 0.45 0.45 0.41 0.37 0.24 0.20 0.18 0.20 0.18 0.19 0.21 0.24 0.22 0.23 0.25 0.27 0.30 0.36 0.45 0.52
0.15 0.16 0.19 0.16 0.22 0.32 0.30 0.17 0.19 0.16 0.18 0.17 0.17 0.18 0.31 0.46 0.50 0.36 0.35 0.47 0.34 0.30 0.28 0.28 0.28 0.29 0.29 0.31 0.36 0.39 0.53 0.42 0.31 0.33 0.36 0.39 0.33 0.26 0.22 0.19 0.19 0.17 0.16 0.16 0.18 0.23 0.24 0.25 0.30 0.33 0.31 0.33 0.36 0.35
0.23 0.31 0.32 0.28 0.41 0.36 0.32 0.39 0.32 0.32 0.28 0.26 0.27 0.21 0.34 0.31 0.31 0.40 0.34 0.36 0.39 0.37 0.37 0.35 0.37 0.42 0.42 0.48 0.47 0.48 0.46 0.40 0.29 0.26 0.26 0.26 0.24 0.21 0.17 0.14 0.16 0.18 0.19 0.17 0.18 0.21 0.21 0.25 0.31 0.31 0.33 0.30 0.29 0.28
0.26 0.28 0.32 0.38 0.40 0.42 0.40 0.42 0.38 0.35 0.34 0.30 0.34 0.36 0.38 0.34 0.39 0.53 0.39 0.42 0.65 0.65 0.53 0.51 0.54 0.51 0.51 0.43 0.36 0.38 0.36 0.35 0.32 0.25 0.21 0.20 0.14 0.11 0.10 0.13 0.14 0.15 0.16 0.18 0.22 0.20 0.19 0.17 0.19 0.19 0.18 0.18 0.19 0.16